Time,TemperatureF,DewpointF,PressureIn,WindDirection,WindDirectionDegrees,WindSpeedMPH,WindSpeedGustMPH,Humidity,HourlyPrecipIn,Conditions,Clouds,dailyrainin,SoftwareType,DateUTC
2013-09-06 00:02:00,62.5,57.3,30.25,NW,310,0.0,0.0,83,0.00,,,0.00,Wunderground v.1.15,2013-09-06 04:02:00,
2013-09-06 00:03:00,62.5,57.0,30.25,NW,310,0.0,0.0,83,0.00,,,0.00,weatherlink.com 1.10,2013-09-06 04:03:00,
2013-09-06 00:07:00,62.3,57.4,30.25,NW,310,0.0,0.0,84,0.00,,,0.00,Wunderground v.1.15,2013-09-06 04:07:00,
2013-09-06 00:08:00,62.2,57.3,30.25,NW,310,0.0,0.0,84,0.00,,,0.00,Wunderground v.1.15,2013-09-06 04:08:00,
2013-09-06 00:09:00,62.2,57.3,30.25,NW,310,0.0,0.0,84,0.00,,,0.00,Wunderground v.1.15,2013-09-06 04:09:00,
2013-09-06 00:12:00,62.1,57.2,30.25,NW,310,0.0,0.0,84,0.00,,,0.00,Wunderground v.1.15,2013-09-06 04:12:00,
2013-09-06 00:13:00,62.1,57.2,30.25,NW,310,0.0,0.0,84,0.00,,,0.00,Wunderground v.1.15,2013-09-06 04:13:00,
2013-09-06 00:15:00,62.1,57.2,30.25,NW,310,0.0,0.0,84,0.00,,,0.00,Wunderground v.1.15,2013-09-06 04:15:00,
2013-09-06 00:18:00,62.0,57.0,30.25,NW,310,0.0,0.0,84,0.00,,,0.00,weatherlink.com 1.10,2013-09-06 04:18:00,
2013-09-06 00:19:00,62.0,57.1,30.25,NW,310,0.0,0.0,84,0.00,,,0.00,Wunderground v.1.15,2013-09-06 04:19:00,
2013-09-06 00:22:00,61.8,57.2,30.25,NW,310,0.0,0.0,85,0.00,,,0.00,Wunderground v.1.15,2013-09-06 04:22:00,
2013-09-06 00:23:00,61.8,57.2,30.25,NW,310,0.0,0.0,85,0.00,,,0.00,Wunderground v.1.15,2013-09-06 04:23:00,
2013-09-06 00:24:00,61.8,57.2,30.25,NW,310,0.0,0.0,85,0.00,,,0.00,Wunderground v.1.15,2013-09-06 04:24:00,
2013-09-06 00:25:00,61.7,57.1,30.25,NW,310,0.0,0.0,85,0.00,,,0.00,Wunderground v.1.15,2013-09-06 04:25:00,
2013-09-06 00:27:00,61.7,57.5,30.25,NW,310,0.0,0.0,86,0.00,,,0.00,Wunderground v.1.15,2013-09-06 04:27:00,
2013-09-06 00:29:00,61.6,57.0,30.25,NW,310,0.0,0.0,85,0.00,,,0.00,Wunderground v.1.15,2013-09-06 04:29:00,
2013-09-06 00:30:00,61.6,57.4,30.25,NW,310,0.0,0.0,86,0.00,,,0.00,Wunderground v.1.15,2013-09-06 04:30:00,
2013-09-06 00:31:00,61.6,57.4,30.25,NW,310,0.0,0.0,86,0.00,,,0.00,Wunderground v.1.15,2013-09-06 04:31:00,
2013-09-06 00:32:00,61.6,57.4,30.25,NW,310,0.0,0.0,86,0.00,,,0.00,Wunderground v.1.15,2013-09-06 04:32:00,
2013-09-06 00:33:00,61.6,57.4,30.25,NW,310,0.0,0.0,86,0.00,,,0.00,Wunderground v.1.15,2013-09-06 04:33:00,
2013-09-06 00:34:00,61.6,57.4,30.26,NW,310,0.0,0.0,86,0.00,,,0.00,Wunderground v.1.15,2013-09-06 04:34:00,
2013-09-06 00:38:00,61.5,57.3,30.25,NW,310,0.0,0.0,86,0.00,,,0.00,Wunderground v.1.15,2013-09-06 04:38:00,
2013-09-06 00:40:00,61.5,57.3,30.25,NW,310,0.0,0.0,86,0.00,,,0.00,Wunderground v.1.15,2013-09-06 04:40:00,
2013-09-06 00:41:00,61.4,57.2,30.25,NW,310,0.0,0.0,86,0.00,,,0.00,Wunderground v.1.15,2013-09-06 04:41:00,
2013-09-06 00:44:00,61.3,57.1,30.25,NW,310,1.0,1.0,86,0.00,,,0.00,Wunderground v.1.15,2013-09-06 04:44:00,
2013-09-06 00:46:00,61.1,56.9,30.25,NW,310,0.0,1.0,86,0.00,,,0.00,Wunderground v.1.15,2013-09-06 04:46:00,
2013-09-06 00:48:00,61.0,56.8,30.25,NW,310,0.0,1.0,86,0.00,,,0.00,Wunderground v.1.15,2013-09-06 04:48:00,
2013-09-06 00:49:00,61.0,57.1,30.25,NW,310,0.0,1.0,87,0.00,,,0.00,Wunderground v.1.15,2013-09-06 04:49:00,
2013-09-06 00:50:00,60.9,57.0,30.25,NW,310,0.0,0.0,87,0.00,,,0.00,Wunderground v.1.15,2013-09-06 04:50:00,
2013-09-06 00:55:00,60.7,56.8,30.25,NW,310,0.0,0.0,87,0.00,,,0.00,Wunderground v.1.15,2013-09-06 04:55:00,
2013-09-06 00:56:00,60.7,56.8,30.25,NW,310,0.0,0.0,87,0.00,,,0.00,Wunderground v.1.15,2013-09-06 04:56:00,
2013-09-06 00:57:00,60.7,57.1,30.25,NW,310,0.0,0.0,88,0.00,,,0.00,Wunderground v.1.15,2013-09-06 04:57:00,
2013-09-06 00:58:00,60.6,57.0,30.25,NW,310,0.0,0.0,88,0.00,,,0.00,Wunderground v.1.15,2013-09-06 04:58:00,
2013-09-06 00:59:00,60.6,57.0,30.25,NW,310,0.0,0.0,88,0.00,,,0.00,Wunderground v.1.15,2013-09-06 04:59:00,
2013-09-06 01:00:00,60.6,57.0,30.25,NW,310,0.0,0.0,88,0.00,,,0.00,Wunderground v.1.15,2013-09-06 05:00:00,
2013-09-06 01:02:00,60.5,56.9,30.25,NW,310,0.0,0.0,88,0.00,,,0.00,Wunderground v.1.15,2013-09-06 05:02:00,
2013-09-06 01:03:00,60.5,56.9,30.25,NW,310,0.0,0.0,88,0.00,,,0.00,Wunderground v.1.15,2013-09-06 05:03:00,
2013-09-06 01:06:00,60.5,56.9,30.25,NW,311,1.0,1.0,88,0.00,,,0.00,Wunderground v.1.15,2013-09-06 05:06:00,
2013-09-06 01:07:00,60.5,56.9,30.25,NW,311,1.0,1.0,88,0.00,,,0.00,Wunderground v.1.15,2013-09-06 05:07:00,
2013-09-06 01:08:00,60.5,56.9,30.25,NW,311,0.0,1.0,88,0.00,,,0.00,Wunderground v.1.15,2013-09-06 05:08:00,
2013-09-06 01:09:00,60.5,56.9,30.25,NW,311,0.0,1.0,88,0.00,,,0.00,Wunderground v.1.15,2013-09-06 05:09:00,
2013-09-06 01:12:00,60.5,56.9,30.25,NW,323,1.0,1.0,88,0.00,,,0.00,Wunderground v.1.15,2013-09-06 05:12:00,
2013-09-06 01:17:00,60.4,57.1,30.26,East,91,2.0,3.0,89,0.00,,,0.00,Wunderground v.1.15,2013-09-06 05:17:00,
2013-09-06 01:19:00,60.4,57.1,30.26,East,87,1.0,3.0,89,0.00,,,0.00,Wunderground v.1.15,2013-09-06 05:19:00,
2013-09-06 01:20:00,60.4,57.0,30.26,East,87,1.0,4.0,89,0.00,,,0.00,weatherlink.com 1.10,2013-09-06 05:20:00,
2013-09-06 01:24:00,60.4,57.1,30.26,East,87,0.0,2.0,89,0.00,,,0.00,Wunderground v.1.15,2013-09-06 05:24:00,
2013-09-06 01:25:00,60.4,57.1,30.26,East,87,0.0,2.0,89,0.00,,,0.00,Wunderground v.1.15,2013-09-06 05:25:00,
2013-09-06 01:26:00,60.4,57.1,30.26,East,87,0.0,2.0,89,0.00,,,0.00,Wunderground v.1.15,2013-09-06 05:26:00,
2013-09-06 01:30:00,60.3,57.0,30.26,East,87,0.0,1.0,89,0.00,,,0.00,Wunderground v.1.15,2013-09-06 05:30:00,
2013-09-06 01:31:00,60.3,57.0,30.26,East,87,0.0,1.0,89,0.00,,,0.00,Wunderground v.1.15,2013-09-06 05:31:00,
2013-09-06 01:32:00,60.2,56.9,30.26,East,87,0.0,1.0,89,0.00,,,0.00,Wunderground v.1.15,2013-09-06 05:32:00,
2013-09-06 01:34:00,60.2,57.0,30.26,East,87,0.0,0.0,89,0.00,,,0.00,weatherlink.com 1.10,2013-09-06 05:34:00,
2013-09-06 01:35:00,60.2,56.9,30.25,East,87,0.0,1.0,89,0.00,,,0.00,Wunderground v.1.15,2013-09-06 05:35:00,
2013-09-06 01:36:00,60.1,56.8,30.25,East,87,0.0,1.0,89,0.00,,,0.00,Wunderground v.1.15,2013-09-06 05:36:00,
2013-09-06 01:41:00,60.0,56.7,30.25,East,87,1.0,1.0,89,0.00,,,0.00,Wunderground v.1.15,2013-09-06 05:41:00,
2013-09-06 01:42:00,59.9,56.6,30.25,East,87,1.0,1.0,89,0.00,,,0.00,Wunderground v.1.15,2013-09-06 05:42:00,
2013-09-06 01:45:00,59.8,56.6,30.25,NNW,331,2.0,2.0,89,0.00,,,0.00,Wunderground v.1.15,2013-09-06 05:45:00,
2013-09-06 01:46:00,59.8,56.9,30.25,NW,323,2.0,2.0,90,0.00,,,0.00,Wunderground v.1.15,2013-09-06 05:46:00,
2013-09-06 01:47:00,59.8,56.9,30.25,NW,323,3.0,3.0,90,0.00,,,0.00,Wunderground v.1.15,2013-09-06 05:47:00,
2013-09-06 01:48:00,59.8,56.9,30.25,NW,323,1.0,3.0,90,0.00,,,0.00,Wunderground v.1.15,2013-09-06 05:48:00,
2013-09-06 01:49:00,59.7,57.0,30.25,NW,323,2.0,3.0,90,0.00,,,0.00,weatherlink.com 1.10,2013-09-06 05:49:00,
2013-09-06 01:50:00,59.7,56.8,30.25,NW,321,3.0,3.0,90,0.00,,,0.00,Wunderground v.1.15,2013-09-06 05:50:00,
2013-09-06 01:55:00,59.6,56.7,30.25,NNW,328,0.0,3.0,90,0.00,,,0.00,Wunderground v.1.15,2013-09-06 05:55:00,
2013-09-06 01:56:00,59.6,56.7,30.25,NW,325,2.0,3.0,90,0.00,,,0.00,Wunderground v.1.15,2013-09-06 05:56:00,
2013-09-06 01:57:00,59.6,56.7,30.25,NW,325,1.0,3.0,90,0.00,,,0.00,Wunderground v.1.15,2013-09-06 05:57:00,
2013-09-06 01:58:00,59.5,56.6,30.25,NW,325,3.0,3.0,90,0.00,,,0.00,Wunderground v.1.15,2013-09-06 05:58:00,
2013-09-06 02:01:00,59.4,56.5,30.25,NW,324,1.0,2.0,90,0.00,,,0.00,Wunderground v.1.15,2013-09-06 06:01:00,
2013-09-06 02:02:00,59.4,56.5,30.25,NW,324,1.0,2.0,90,0.00,,,0.00,Wunderground v.1.15,2013-09-06 06:02:00,
2013-09-06 02:04:00,59.3,56.4,30.25,NW,324,1.0,2.0,90,0.00,,,0.00,Wunderground v.1.15,2013-09-06 06:04:00,
2013-09-06 02:06:00,59.3,56.4,30.25,NNW,333,0.0,2.0,90,0.00,,,0.00,Wunderground v.1.15,2013-09-06 06:06:00,
2013-09-06 02:07:00,59.3,56.4,30.25,NNW,333,0.0,2.0,90,0.00,,,0.00,Wunderground v.1.15,2013-09-06 06:07:00,
2013-09-06 02:11:00,59.2,56.3,30.25,NNW,333,1.0,1.0,90,0.00,,,0.00,Wunderground v.1.15,2013-09-06 06:11:00,
2013-09-06 02:12:00,59.1,56.2,30.25,NNW,333,0.0,1.0,90,0.00,,,0.00,Wunderground v.1.15,2013-09-06 06:12:00,
2013-09-06 02:13:00,59.1,56.2,30.25,NNW,333,0.0,1.0,90,0.00,,,0.00,Wunderground v.1.15,2013-09-06 06:13:00,
2013-09-06 02:16:00,59.0,56.1,30.25,NNW,333,0.0,1.0,90,0.00,,,0.00,Wunderground v.1.15,2013-09-06 06:16:00,
2013-09-06 02:17:00,59.0,56.1,30.24,NNW,333,0.0,1.0,90,0.00,,,0.00,Wunderground v.1.15,2013-09-06 06:17:00,
2013-09-06 02:18:00,58.9,56.0,30.24,NNW,333,0.0,1.0,90,0.00,,,0.00,Wunderground v.1.15,2013-09-06 06:18:00,
2013-09-06 02:22:00,58.8,55.9,30.24,NNW,333,0.0,0.0,90,0.00,,,0.00,Wunderground v.1.15,2013-09-06 06:22:00,
2013-09-06 02:23:00,58.7,55.8,30.24,NNW,333,0.0,1.0,90,0.00,,,0.00,Wunderground v.1.15,2013-09-06 06:23:00,
2013-09-06 02:25:00,58.7,55.8,30.25,NNW,333,0.0,1.0,90,0.00,,,0.00,Wunderground v.1.15,2013-09-06 06:25:00,
2013-09-06 02:26:00,58.6,55.7,30.25,NNW,333,0.0,1.0,90,0.00,,,0.00,Wunderground v.1.15,2013-09-06 06:26:00,
2013-09-06 02:27:00,58.6,56.0,30.25,NNW,333,0.0,1.0,91,0.00,,,0.00,Wunderground v.1.15,2013-09-06 06:27:00,
2013-09-06 02:28:00,58.6,56.0,30.25,NNW,333,0.0,1.0,91,0.00,,,0.00,Wunderground v.1.15,2013-09-06 06:28:00,
2013-09-06 02:30:00,58.6,56.0,30.25,NNW,333,0.0,0.0,91,0.00,,,0.00,Wunderground v.1.15,2013-09-06 06:30:00,
2013-09-06 02:31:00,58.6,56.0,30.25,NNW,333,0.0,0.0,91,0.00,,,0.00,Wunderground v.1.15,2013-09-06 06:31:00,
2013-09-06 02:32:00,58.5,55.9,30.24,NNW,333,0.0,0.0,91,0.00,,,0.00,Wunderground v.1.15,2013-09-06 06:32:00,
2013-09-06 02:33:00,58.5,55.9,30.24,NNW,333,0.0,0.0,91,0.00,,,0.00,Wunderground v.1.15,2013-09-06 06:33:00,
2013-09-06 02:35:00,58.4,55.8,30.24,NNW,333,0.0,0.0,91,0.00,,,0.00,Wunderground v.1.15,2013-09-06 06:35:00,
2013-09-06 02:37:00,58.4,55.8,30.24,NNW,333,0.0,0.0,91,0.00,,,0.00,Wunderground v.1.15,2013-09-06 06:37:00,
2013-09-06 02:38:00,58.4,55.8,30.24,NNW,333,0.0,0.0,91,0.00,,,0.00,Wunderground v.1.15,2013-09-06 06:38:00,
2013-09-06 02:39:00,58.4,55.8,30.24,NNW,333,0.0,0.0,91,0.00,,,0.00,Wunderground v.1.15,2013-09-06 06:39:00,
2013-09-06 02:40:00,58.3,55.7,30.24,NNW,333,0.0,0.0,91,0.00,,,0.00,Wunderground v.1.15,2013-09-06 06:40:00,
2013-09-06 02:41:00,58.3,55.7,30.24,NNW,333,0.0,0.0,91,0.00,,,0.00,Wunderground v.1.15,2013-09-06 06:41:00,
2013-09-06 02:42:00,58.3,55.7,30.24,NNW,333,0.0,0.0,91,0.00,,,0.00,Wunderground v.1.15,2013-09-06 06:42:00,
2013-09-06 02:43:00,58.3,55.7,30.24,NNW,333,0.0,0.0,91,0.00,,,0.00,Wunderground v.1.15,2013-09-06 06:43:00,
2013-09-06 02:44:00,58.3,55.7,30.24,NNW,333,0.0,0.0,91,0.00,,,0.00,Wunderground v.1.15,2013-09-06 06:44:00,
2013-09-06 02:45:00,58.3,55.7,30.24,NNW,333,0.0,0.0,91,0.00,,,0.00,Wunderground v.1.15,2013-09-06 06:45:00,
2013-09-06 02:47:00,58.3,55.7,30.24,NNW,333,0.0,0.0,91,0.00,,,0.00,Wunderground v.1.15,2013-09-06 06:47:00,
2013-09-06 02:48:00,58.3,55.7,30.24,NNW,333,0.0,0.0,91,0.00,,,0.00,Wunderground v.1.15,2013-09-06 06:48:00,
2013-09-06 02:49:00,58.3,56.0,30.24,NNW,333,0.0,0.0,92,0.00,,,0.00,Wunderground v.1.15,2013-09-06 06:49:00,
2013-09-06 02:51:00,58.3,56.0,30.24,NNW,333,0.0,0.0,92,0.00,,,0.00,Wunderground v.1.15,2013-09-06 06:51:00,
2013-09-06 02:53:00,58.3,56.0,30.24,NNW,333,0.0,0.0,92,0.00,,,0.00,Wunderground v.1.15,2013-09-06 06:53:00,
2013-09-06 02:54:00,58.2,55.9,30.24,NNW,333,0.0,0.0,92,0.00,,,0.00,Wunderground v.1.15,2013-09-06 06:54:00,
2013-09-06 02:56:00,58.2,55.9,30.24,NNW,333,0.0,0.0,92,0.00,,,0.00,Wunderground v.1.15,2013-09-06 06:56:00,
2013-09-06 02:58:00,58.2,55.9,30.24,NNW,333,0.0,0.0,92,0.00,,,0.00,Wunderground v.1.15,2013-09-06 06:58:00,
2013-09-06 02:59:00,58.2,55.9,30.24,NNW,333,0.0,0.0,92,0.00,,,0.00,Wunderground v.1.15,2013-09-06 06:59:00,
2013-09-06 03:00:00,58.2,55.9,30.24,NNW,333,0.0,0.0,92,0.00,,,0.00,Wunderground v.1.15,2013-09-06 07:00:00,
2013-09-06 03:02:00,58.2,55.9,30.24,NNW,333,0.0,0.0,92,0.00,,,0.00,Wunderground v.1.15,2013-09-06 07:02:00,
2013-09-06 03:03:00,58.2,55.9,30.24,NNW,333,0.0,0.0,92,0.00,,,0.00,Wunderground v.1.15,2013-09-06 07:03:00,
2013-09-06 03:04:00,58.2,55.9,30.24,NNW,333,0.0,0.0,92,0.00,,,0.00,Wunderground v.1.15,2013-09-06 07:04:00,
2013-09-06 03:05:00,58.2,55.9,30.24,NNW,333,0.0,0.0,92,0.00,,,0.00,Wunderground v.1.15,2013-09-06 07:05:00,
2013-09-06 03:06:00,58.2,55.9,30.24,NNW,333,0.0,0.0,92,0.00,,,0.00,Wunderground v.1.15,2013-09-06 07:06:00,
2013-09-06 03:07:00,58.2,55.9,30.24,NNW,333,0.0,0.0,92,0.00,,,0.00,Wunderground v.1.15,2013-09-06 07:07:00,
2013-09-06 03:08:00,58.2,55.9,30.24,NNW,333,0.0,0.0,92,0.00,,,0.00,Wunderground v.1.15,2013-09-06 07:08:00,
2013-09-06 03:10:00,58.1,55.8,30.24,NNW,333,0.0,0.0,92,0.00,,,0.00,Wunderground v.1.15,2013-09-06 07:10:00,
2013-09-06 03:11:00,58.1,55.8,30.24,NNW,333,0.0,0.0,92,0.00,,,0.00,Wunderground v.1.15,2013-09-06 07:11:00,
2013-09-06 03:12:00,58.1,55.8,30.24,NNW,333,0.0,0.0,92,0.00,,,0.00,Wunderground v.1.15,2013-09-06 07:12:00,
2013-09-06 03:13:00,58.1,55.8,30.24,NNW,333,0.0,0.0,92,0.00,,,0.00,Wunderground v.1.15,2013-09-06 07:13:00,
2013-09-06 03:15:00,58.1,55.8,30.24,NNW,333,0.0,0.0,92,0.00,,,0.00,Wunderground v.1.15,2013-09-06 07:15:00,
2013-09-06 03:16:00,58.1,55.8,30.24,NNW,333,0.0,0.0,92,0.00,,,0.00,Wunderground v.1.15,2013-09-06 07:16:00,
2013-09-06 03:17:00,58.1,55.8,30.24,NNW,333,0.0,0.0,92,0.00,,,0.00,Wunderground v.1.15,2013-09-06 07:17:00,
2013-09-06 03:18:00,58.1,55.8,30.24,NNW,333,0.0,0.0,92,0.00,,,0.00,Wunderground v.1.15,2013-09-06 07:18:00,
2013-09-06 03:20:00,58.0,55.7,30.24,NNW,333,0.0,0.0,92,0.00,,,0.00,Wunderground v.1.15,2013-09-06 07:20:00,
2013-09-06 03:21:00,58.0,55.4,30.24,NNW,333,0.0,0.0,91,0.00,,,0.00,Wunderground v.1.15,2013-09-06 07:21:00,
2013-09-06 03:22:00,58.0,55.4,30.24,NNW,333,0.0,0.0,91,0.00,,,0.00,Wunderground v.1.15,2013-09-06 07:22:00,
2013-09-06 03:23:00,58.0,55.7,30.24,NNW,333,0.0,0.0,92,0.00,,,0.00,Wunderground v.1.15,2013-09-06 07:23:00,
2013-09-06 03:25:00,58.0,55.7,30.24,NNW,333,0.0,0.0,92,0.00,,,0.00,Wunderground v.1.15,2013-09-06 07:25:00,
2013-09-06 03:27:00,58.0,55.7,30.24,NNW,333,0.0,0.0,92,0.00,,,0.00,Wunderground v.1.15,2013-09-06 07:27:00,
2013-09-06 03:28:00,58.0,55.7,30.24,NNW,333,0.0,0.0,92,0.00,,,0.00,Wunderground v.1.15,2013-09-06 07:28:00,
2013-09-06 03:29:00,58.0,55.7,30.24,NNW,333,0.0,0.0,92,0.00,,,0.00,Wunderground v.1.15,2013-09-06 07:29:00,
2013-09-06 03:30:00,57.9,55.6,30.24,NNW,333,0.0,0.0,92,0.00,,,0.00,Wunderground v.1.15,2013-09-06 07:30:00,
2013-09-06 03:31:00,57.9,55.6,30.24,NNW,333,0.0,0.0,92,0.00,,,0.00,Wunderground v.1.15,2013-09-06 07:31:00,
2013-09-06 03:32:00,57.9,55.6,30.24,NNW,333,0.0,0.0,92,0.00,,,0.00,Wunderground v.1.15,2013-09-06 07:32:00,
2013-09-06 03:34:00,57.9,55.6,30.24,NNW,333,0.0,0.0,92,0.00,,,0.00,Wunderground v.1.15,2013-09-06 07:34:00,
2013-09-06 03:35:00,58.0,56.0,30.24,NNW,333,0.0,0.0,93,0.00,,,0.00,Wunderground v.1.15,2013-09-06 07:35:00,
2013-09-06 03:36:00,58.0,56.0,30.24,NNW,333,0.0,0.0,93,0.00,,,0.00,Wunderground v.1.15,2013-09-06 07:36:00,
2013-09-06 03:38:00,58.0,56.0,30.24,NNW,333,0.0,0.0,93,0.00,,,0.00,Wunderground v.1.15,2013-09-06 07:38:00,
2013-09-06 03:39:00,58.1,56.1,30.24,NNW,333,0.0,0.0,93,0.00,,,0.00,Wunderground v.1.15,2013-09-06 07:39:00,
2013-09-06 03:41:00,58.1,56.1,30.24,NNW,333,0.0,0.0,93,0.00,,,0.00,Wunderground v.1.15,2013-09-06 07:41:00,
2013-09-06 03:43:00,58.2,56.2,30.24,NNW,333,0.0,1.0,93,0.00,,,0.00,Wunderground v.1.15,2013-09-06 07:43:00,
2013-09-06 03:44:00,58.2,56.2,30.24,NNW,333,0.0,1.0,93,0.00,,,0.00,Wunderground v.1.15,2013-09-06 07:44:00,
2013-09-06 03:46:00,58.2,56.2,30.24,NNW,333,0.0,1.0,93,0.00,,,0.00,Wunderground v.1.15,2013-09-06 07:46:00,
2013-09-06 03:47:00,58.3,56.3,30.24,NNW,338,0.0,1.0,93,0.00,,,0.00,Wunderground v.1.15,2013-09-06 07:47:00,
2013-09-06 03:48:00,58.3,56.3,30.24,East,82,2.0,2.0,93,0.00,,,0.00,Wunderground v.1.15,2013-09-06 07:48:00,
2013-09-06 03:50:00,58.3,56.3,30.24,East,84,1.0,2.0,93,0.00,,,0.00,Wunderground v.1.15,2013-09-06 07:50:00,
2013-09-06 03:51:00,58.3,56.3,30.24,East,84,1.0,2.0,93,0.00,,,0.00,Wunderground v.1.15,2013-09-06 07:51:00,
2013-09-06 03:53:00,58.3,56.0,30.24,East,84,0.0,2.0,92,0.00,,,0.00,Wunderground v.1.15,2013-09-06 07:53:00,
2013-09-06 03:54:00,58.4,56.1,30.24,East,84,0.0,2.0,92,0.00,,,0.00,Wunderground v.1.15,2013-09-06 07:54:00,
2013-09-06 03:55:00,58.4,56.1,30.24,East,84,1.0,2.0,92,0.00,,,0.00,Wunderground v.1.15,2013-09-06 07:55:00,
2013-09-06 03:56:00,58.4,56.1,30.24,East,84,0.0,2.0,92,0.00,,,0.00,Wunderground v.1.15,2013-09-06 07:56:00,
2013-09-06 03:57:00,58.4,56.1,30.24,East,84,0.0,2.0,92,0.00,,,0.00,Wunderground v.1.15,2013-09-06 07:57:00,
2013-09-06 03:58:00,58.3,56.0,30.24,East,84,0.0,2.0,92,0.00,,,0.00,Wunderground v.1.15,2013-09-06 07:58:00,
2013-09-06 04:00:00,58.3,56.0,30.24,East,84,0.0,0.0,92,0.00,,,0.00,Wunderground v.1.15,2013-09-06 08:00:00,
2013-09-06 04:01:00,58.3,56.0,30.24,East,84,0.0,0.0,92,0.00,,,0.00,Wunderground v.1.15,2013-09-06 08:01:00,
2013-09-06 04:02:00,58.3,56.0,30.24,East,84,0.0,1.0,92,0.00,,,0.00,Wunderground v.1.15,2013-09-06 08:02:00,
2013-09-06 04:04:00,58.3,56.0,30.24,East,84,0.0,1.0,92,0.00,,,0.00,Wunderground v.1.15,2013-09-06 08:04:00,
2013-09-06 04:06:00,58.2,55.9,30.24,East,84,0.0,1.0,92,0.00,,,0.00,Wunderground v.1.15,2013-09-06 08:06:00,
2013-09-06 04:07:00,58.2,55.9,30.24,East,84,0.0,1.0,92,0.00,,,0.00,Wunderground v.1.15,2013-09-06 08:07:00,
2013-09-06 04:08:00,58.2,55.9,30.24,East,84,0.0,1.0,92,0.00,,,0.00,Wunderground v.1.15,2013-09-06 08:08:00,
2013-09-06 04:09:00,58.2,55.9,30.24,East,84,1.0,1.0,92,0.00,,,0.00,Wunderground v.1.15,2013-09-06 08:09:00,
2013-09-06 04:11:00,58.1,55.8,30.24,East,84,0.0,1.0,92,0.00,,,0.00,Wunderground v.1.15,2013-09-06 08:11:00,
2013-09-06 04:12:00,58.1,55.8,30.24,East,84,0.0,1.0,92,0.00,,,0.00,Wunderground v.1.15,2013-09-06 08:12:00,
2013-09-06 04:13:00,58.1,55.8,30.24,East,84,0.0,1.0,92,0.00,,,0.00,Wunderground v.1.15,2013-09-06 08:13:00,
2013-09-06 04:16:00,58.1,55.8,30.24,East,84,0.0,1.0,92,0.00,,,0.00,Wunderground v.1.15,2013-09-06 08:16:00,
2013-09-06 04:17:00,58.1,55.8,30.24,East,84,0.0,1.0,92,0.00,,,0.00,Wunderground v.1.15,2013-09-06 08:17:00,
2013-09-06 04:19:00,58.0,55.7,30.24,East,84,0.0,1.0,92,0.00,,,0.00,Wunderground v.1.15,2013-09-06 08:19:00,
2013-09-06 04:21:00,58.0,55.7,30.24,East,84,0.0,0.0,92,0.00,,,0.00,Wunderground v.1.15,2013-09-06 08:21:00,
2013-09-06 04:22:00,58.0,55.7,30.24,East,84,0.0,0.0,92,0.00,,,0.00,Wunderground v.1.15,2013-09-06 08:22:00,
2013-09-06 04:25:00,57.9,55.6,30.24,East,84,0.0,0.0,92,0.00,,,0.00,Wunderground v.1.15,2013-09-06 08:25:00,
2013-09-06 04:26:00,57.9,55.6,30.24,East,84,0.0,0.0,92,0.00,,,0.00,Wunderground v.1.15,2013-09-06 08:26:00,
2013-09-06 04:27:00,57.8,55.5,30.24,East,84,0.0,0.0,92,0.00,,,0.00,Wunderground v.1.15,2013-09-06 08:27:00,
2013-09-06 04:28:00,57.8,55.5,30.24,East,84,0.0,0.0,92,0.00,,,0.00,Wunderground v.1.15,2013-09-06 08:28:00,
2013-09-06 04:32:00,57.7,55.4,30.24,East,84,0.0,0.0,92,0.00,,,0.00,Wunderground v.1.15,2013-09-06 08:32:00,
2013-09-06 04:33:00,57.6,55.3,30.24,East,84,0.0,0.0,92,0.00,,,0.00,Wunderground v.1.15,2013-09-06 08:33:00,
2013-09-06 04:35:00,57.5,55.2,30.25,East,84,0.0,0.0,92,0.00,,,0.00,Wunderground v.1.15,2013-09-06 08:35:00,
2013-09-06 04:37:00,57.5,55.2,30.25,East,84,0.0,1.0,92,0.00,,,0.00,Wunderground v.1.15,2013-09-06 08:37:00,
2013-09-06 04:38:00,57.5,55.2,30.25,East,84,0.0,1.0,92,0.00,,,0.00,Wunderground v.1.15,2013-09-06 08:38:00,
2013-09-06 04:40:00,57.4,55.1,30.25,East,84,0.0,0.0,92,0.00,,,0.00,Wunderground v.1.15,2013-09-06 08:40:00,
2013-09-06 04:42:00,57.4,55.1,30.25,East,84,0.0,0.0,92,0.00,,,0.00,Wunderground v.1.15,2013-09-06 08:42:00,
2013-09-06 04:43:00,57.3,55.0,30.25,East,84,0.0,0.0,92,0.00,,,0.00,Wunderground v.1.15,2013-09-06 08:43:00,
2013-09-06 04:44:00,57.3,55.0,30.25,East,84,0.0,1.0,92,0.00,,,0.00,Wunderground v.1.15,2013-09-06 08:44:00,
2013-09-06 04:46:00,57.3,55.0,30.24,East,84,1.0,1.0,92,0.00,,,0.00,Wunderground v.1.15,2013-09-06 08:46:00,
2013-09-06 04:47:00,57.3,55.3,30.24,East,84,0.0,1.0,93,0.00,,,0.00,Wunderground v.1.15,2013-09-06 08:47:00,
2013-09-06 04:48:00,57.3,55.3,30.24,East,84,0.0,1.0,93,0.00,,,0.00,Wunderground v.1.15,2013-09-06 08:48:00,
2013-09-06 04:51:00,57.3,55.3,30.24,East,84,0.0,0.0,93,0.00,,,0.00,Wunderground v.1.15,2013-09-06 08:51:00,
2013-09-06 04:52:00,57.3,55.3,30.24,East,84,0.0,0.0,93,0.00,,,0.00,Wunderground v.1.15,2013-09-06 08:52:00,
2013-09-06 04:53:00,57.3,55.3,30.24,East,84,0.0,0.0,93,0.00,,,0.00,Wunderground v.1.15,2013-09-06 08:53:00,
2013-09-06 04:57:00,57.3,55.3,30.24,East,84,0.0,1.0,93,0.00,,,0.00,Wunderground v.1.15,2013-09-06 08:57:00,
2013-09-06 04:59:00,57.4,55.7,30.24,East,84,0.0,1.0,94,0.00,,,0.00,Wunderground v.1.15,2013-09-06 08:59:00,
2013-09-06 05:02:00,57.4,55.7,30.24,East,84,0.0,1.0,94,0.00,,,0.00,Wunderground v.1.15,2013-09-06 09:02:00,
2013-09-06 05:04:00,57.5,55.8,30.24,East,84,0.0,1.0,94,0.00,,,0.00,Wunderground v.1.15,2013-09-06 09:04:00,
2013-09-06 05:05:00,57.5,55.8,30.24,East,84,0.0,1.0,94,0.00,,,0.00,Wunderground v.1.15,2013-09-06 09:05:00,
2013-09-06 05:07:00,57.5,55.8,30.24,East,84,0.0,1.0,94,0.00,,,0.00,Wunderground v.1.15,2013-09-06 09:07:00,
2013-09-06 05:08:00,57.5,55.8,30.24,East,84,0.0,1.0,94,0.00,,,0.00,Wunderground v.1.15,2013-09-06 09:08:00,
2013-09-06 05:09:00,57.6,55.9,30.24,East,84,0.0,1.0,94,0.00,,,0.00,Wunderground v.1.15,2013-09-06 09:09:00,
2013-09-06 05:12:00,57.5,55.8,30.24,East,84,0.0,0.0,94,0.00,,,0.00,Wunderground v.1.15,2013-09-06 09:12:00,
2013-09-06 05:13:00,57.6,55.9,30.24,East,84,0.0,0.0,94,0.00,,,0.00,Wunderground v.1.15,2013-09-06 09:13:00,
2013-09-06 05:14:00,57.6,55.9,30.24,East,84,0.0,0.0,94,0.00,,,0.00,Wunderground v.1.15,2013-09-06 09:14:00,
2013-09-06 05:15:00,57.6,55.9,30.24,East,84,0.0,0.0,94,0.00,,,0.00,Wunderground v.1.15,2013-09-06 09:15:00,
2013-09-06 05:17:00,57.5,55.8,30.24,East,84,0.0,0.0,94,0.00,,,0.00,Wunderground v.1.15,2013-09-06 09:17:00,
2013-09-06 05:18:00,57.5,55.8,30.24,East,84,0.0,0.0,94,0.00,,,0.00,Wunderground v.1.15,2013-09-06 09:18:00,
2013-09-06 05:19:00,57.5,55.8,30.24,East,84,0.0,0.0,94,0.00,,,0.00,Wunderground v.1.15,2013-09-06 09:19:00,
2013-09-06 05:20:00,57.5,55.5,30.24,East,84,0.0,0.0,93,0.00,,,0.00,Wunderground v.1.15,2013-09-06 09:20:00,
2013-09-06 05:23:00,57.2,54.9,30.24,East,84,0.0,0.0,92,0.00,,,0.00,Wunderground v.1.15,2013-09-06 09:23:00,
2013-09-06 05:24:00,57.2,54.9,30.24,East,84,0.0,0.0,92,0.00,,,0.00,Wunderground v.1.15,2013-09-06 09:24:00,
2013-09-06 05:25:00,57.0,54.7,30.24,East,84,0.0,0.0,92,0.00,,,0.00,Wunderground v.1.15,2013-09-06 09:25:00,
2013-09-06 05:26:00,57.0,54.7,30.24,East,84,0.0,0.0,92,0.00,,,0.00,Wunderground v.1.15,2013-09-06 09:26:00,
2013-09-06 05:28:00,56.8,54.5,30.25,East,84,0.0,0.0,92,0.00,,,0.00,Wunderground v.1.15,2013-09-06 09:28:00,
2013-09-06 05:30:00,56.7,54.4,30.25,East,84,0.0,0.0,92,0.00,,,0.00,Wunderground v.1.15,2013-09-06 09:30:00,
2013-09-06 05:31:00,56.7,54.4,30.25,East,84,0.0,0.0,92,0.00,,,0.00,Wunderground v.1.15,2013-09-06 09:31:00,
2013-09-06 05:33:00,56.6,54.3,30.25,East,84,0.0,0.0,92,0.00,,,0.00,Wunderground v.1.15,2013-09-06 09:33:00,
2013-09-06 05:35:00,56.5,54.2,30.25,East,84,0.0,0.0,92,0.00,,,0.00,Wunderground v.1.15,2013-09-06 09:35:00,
2013-09-06 05:36:00,56.5,54.2,30.25,East,84,0.0,0.0,92,0.00,,,0.00,Wunderground v.1.15,2013-09-06 09:36:00,
2013-09-06 05:37:00,56.5,54.5,30.25,East,84,0.0,0.0,93,0.00,,,0.00,Wunderground v.1.15,2013-09-06 09:37:00,
2013-09-06 05:38:00,56.4,54.4,30.25,East,84,0.0,0.0,93,0.00,,,0.00,Wunderground v.1.15,2013-09-06 09:38:00,
2013-09-06 05:40:00,56.4,54.4,30.25,East,84,0.0,0.0,93,0.00,,,0.00,Wunderground v.1.15,2013-09-06 09:40:00,
2013-09-06 05:41:00,56.4,54.4,30.25,East,84,0.0,0.0,93,0.00,,,0.00,Wunderground v.1.15,2013-09-06 09:41:00,
2013-09-06 05:42:00,56.4,54.4,30.25,East,84,0.0,0.0,93,0.00,,,0.00,Wunderground v.1.15,2013-09-06 09:42:00,
2013-09-06 05:43:00,56.3,54.3,30.25,East,84,0.0,0.0,93,0.00,,,0.00,Wunderground v.1.15,2013-09-06 09:43:00,
2013-09-06 05:45:00,56.3,54.3,30.25,East,84,0.0,0.0,93,0.00,,,0.00,Wunderground v.1.15,2013-09-06 09:45:00,
2013-09-06 05:46:00,56.3,54.3,30.25,East,84,0.0,0.0,93,0.00,,,0.00,Wunderground v.1.15,2013-09-06 09:46:00,
2013-09-06 05:47:00,56.3,54.3,30.25,East,84,0.0,0.0,93,0.00,,,0.00,Wunderground v.1.15,2013-09-06 09:47:00,
2013-09-06 05:48:00,56.3,54.3,30.25,East,84,0.0,0.0,93,0.00,,,0.00,Wunderground v.1.15,2013-09-06 09:48:00,
2013-09-06 05:50:00,56.3,54.3,30.25,East,84,0.0,0.0,93,0.00,,,0.00,Wunderground v.1.15,2013-09-06 09:50:00,
2013-09-06 05:51:00,56.3,54.3,30.25,East,84,0.0,0.0,93,0.00,,,0.00,Wunderground v.1.15,2013-09-06 09:51:00,
2013-09-06 05:53:00,56.2,54.2,30.25,East,84,0.0,0.0,93,0.00,,,0.00,Wunderground v.1.15,2013-09-06 09:53:00,
2013-09-06 05:54:00,56.2,54.2,30.25,East,84,0.0,0.0,93,0.00,,,0.00,Wunderground v.1.15,2013-09-06 09:54:00,
2013-09-06 05:56:00,56.2,54.2,30.25,East,84,0.0,0.0,93,0.00,,,0.00,Wunderground v.1.15,2013-09-06 09:56:00,
2013-09-06 05:57:00,56.2,54.2,30.25,East,84,0.0,0.0,93,0.00,,,0.00,Wunderground v.1.15,2013-09-06 09:57:00,
2013-09-06 05:59:00,56.2,54.2,30.25,East,84,0.0,0.0,93,0.00,,,0.00,Wunderground v.1.15,2013-09-06 09:59:00,
2013-09-06 06:00:00,56.1,54.1,30.25,East,84,0.0,0.0,93,0.00,,,0.00,Wunderground v.1.15,2013-09-06 10:00:00,
2013-09-06 06:01:00,56.1,54.1,30.25,East,84,0.0,0.0,93,0.00,,,0.00,Wunderground v.1.15,2013-09-06 10:01:00,
2013-09-06 06:02:00,56.1,54.1,30.25,East,84,0.0,0.0,93,0.00,,,0.00,Wunderground v.1.15,2013-09-06 10:02:00,
2013-09-06 06:04:00,56.1,54.4,30.25,East,84,0.0,0.0,94,0.00,,,0.00,Wunderground v.1.15,2013-09-06 10:04:00,
2013-09-06 06:05:00,56.1,54.4,30.25,East,84,0.0,0.0,94,0.00,,,0.00,Wunderground v.1.15,2013-09-06 10:05:00,
2013-09-06 06:06:00,56.1,54.4,30.25,East,84,0.0,0.0,94,0.00,,,0.00,Wunderground v.1.15,2013-09-06 10:06:00,
2013-09-06 06:07:00,56.1,54.4,30.25,East,84,0.0,0.0,94,0.00,,,0.00,Wunderground v.1.15,2013-09-06 10:07:00,
2013-09-06 06:09:00,56.1,54.4,30.25,East,84,0.0,0.0,94,0.00,,,0.00,Wunderground v.1.15,2013-09-06 10:09:00,
2013-09-06 06:10:00,56.1,54.4,30.25,East,84,0.0,0.0,94,0.00,,,0.00,Wunderground v.1.15,2013-09-06 10:10:00,
2013-09-06 06:11:00,56.1,54.4,30.25,East,84,0.0,0.0,94,0.00,,,0.00,Wunderground v.1.15,2013-09-06 10:11:00,
2013-09-06 06:12:00,56.1,54.4,30.25,East,84,0.0,0.0,94,0.00,,,0.00,Wunderground v.1.15,2013-09-06 10:12:00,
2013-09-06 06:14:00,56.1,54.4,30.25,East,84,0.0,0.0,94,0.00,,,0.00,Wunderground v.1.15,2013-09-06 10:14:00,
2013-09-06 06:15:00,56.2,54.5,30.25,East,84,0.0,0.0,94,0.00,,,0.00,Wunderground v.1.15,2013-09-06 10:15:00,
2013-09-06 06:17:00,56.2,54.5,30.25,East,84,0.0,0.0,94,0.00,,,0.00,Wunderground v.1.15,2013-09-06 10:17:00,
2013-09-06 06:20:00,56.2,54.5,30.26,East,84,0.0,0.0,94,0.00,,,0.00,Wunderground v.1.15,2013-09-06 10:20:00,
2013-09-06 06:21:00,56.2,54.5,30.26,East,84,0.0,0.0,94,0.00,,,0.00,Wunderground v.1.15,2013-09-06 10:21:00,
2013-09-06 06:22:00,56.2,54.5,30.26,East,84,0.0,0.0,94,0.00,,,0.00,Wunderground v.1.15,2013-09-06 10:22:00,
2013-09-06 06:23:00,56.2,54.5,30.26,East,84,0.0,0.0,94,0.00,,,0.00,Wunderground v.1.15,2013-09-06 10:23:00,
2013-09-06 06:25:00,56.2,54.5,30.26,East,84,0.0,0.0,94,0.00,,,0.00,Wunderground v.1.15,2013-09-06 10:25:00,
2013-09-06 06:26:00,56.2,54.5,30.26,East,84,0.0,0.0,94,0.00,,,0.00,Wunderground v.1.15,2013-09-06 10:26:00,
2013-09-06 06:27:00,56.2,54.5,30.26,East,84,0.0,0.0,94,0.00,,,0.00,Wunderground v.1.15,2013-09-06 10:27:00,
2013-09-06 06:28:00,56.2,54.2,30.26,East,84,0.0,0.0,93,0.00,,,0.00,Wunderground v.1.15,2013-09-06 10:28:00,
2013-09-06 06:29:00,56.2,54.2,30.26,East,84,0.0,0.0,93,0.00,,,0.00,Wunderground v.1.15,2013-09-06 10:29:00,
2013-09-06 06:30:00,56.1,54.1,30.26,East,84,0.0,0.0,93,0.00,,,0.00,Wunderground v.1.15,2013-09-06 10:30:00,
2013-09-06 06:31:00,56.1,54.1,30.26,East,84,0.0,0.0,93,0.00,,,0.00,Wunderground v.1.15,2013-09-06 10:31:00,
2013-09-06 06:32:00,56.1,54.1,30.26,East,84,0.0,0.0,93,0.00,,,0.00,Wunderground v.1.15,2013-09-06 10:32:00,
2013-09-06 06:33:00,56.1,54.1,30.26,East,84,0.0,0.0,93,0.00,,,0.00,Wunderground v.1.15,2013-09-06 10:33:00,
2013-09-06 06:34:00,56.1,54.1,30.26,East,84,0.0,0.0,93,0.00,,,0.00,Wunderground v.1.15,2013-09-06 10:34:00,
2013-09-06 06:35:00,56.0,54.0,30.26,East,84,0.0,0.0,93,0.00,,,0.00,Wunderground v.1.15,2013-09-06 10:35:00,
2013-09-06 06:36:00,56.0,54.0,30.26,East,84,0.0,0.0,93,0.00,,,0.00,Wunderground v.1.15,2013-09-06 10:36:00,
2013-09-06 06:37:00,56.0,54.0,30.26,East,84,0.0,0.0,93,0.00,,,0.00,Wunderground v.1.15,2013-09-06 10:37:00,
2013-09-06 06:38:00,56.0,54.0,30.26,East,84,0.0,0.0,93,0.00,,,0.00,Wunderground v.1.15,2013-09-06 10:38:00,
2013-09-06 06:39:00,56.0,54.0,30.26,East,84,0.0,0.0,93,0.00,,,0.00,Wunderground v.1.15,2013-09-06 10:39:00,
2013-09-06 06:40:00,56.0,54.0,30.26,East,84,0.0,0.0,93,0.00,,,0.00,Wunderground v.1.15,2013-09-06 10:40:00,
2013-09-06 06:42:00,56.0,54.0,30.26,East,84,0.0,0.0,93,0.00,,,0.00,Wunderground v.1.15,2013-09-06 10:42:00,
2013-09-06 06:43:00,56.0,54.0,30.26,East,84,0.0,0.0,93,0.00,,,0.00,Wunderground v.1.15,2013-09-06 10:43:00,
2013-09-06 06:45:00,55.9,53.9,30.26,East,84,0.0,0.0,93,0.00,,,0.00,Wunderground v.1.15,2013-09-06 10:45:00,
2013-09-06 06:47:00,55.9,53.9,30.26,East,84,0.0,0.0,93,0.00,,,0.00,Wunderground v.1.15,2013-09-06 10:47:00,
2013-09-06 06:48:00,55.9,53.9,30.26,East,84,0.0,0.0,93,0.00,,,0.00,Wunderground v.1.15,2013-09-06 10:48:00,
2013-09-06 06:50:00,55.8,53.5,30.26,East,84,0.0,0.0,92,0.00,,,0.00,Wunderground v.1.15,2013-09-06 10:50:00,
2013-09-06 06:51:00,55.8,53.5,30.26,East,84,0.0,0.0,92,0.00,,,0.00,Wunderground v.1.15,2013-09-06 10:51:00,
2013-09-06 06:52:00,55.8,53.5,30.26,East,84,0.0,0.0,92,0.00,,,0.00,Wunderground v.1.15,2013-09-06 10:52:00,
2013-09-06 06:53:00,55.8,53.5,30.26,East,84,0.0,0.0,92,0.00,,,0.00,Wunderground v.1.15,2013-09-06 10:53:00,
2013-09-06 06:55:00,55.7,53.4,30.26,East,84,0.0,0.0,92,0.00,,,0.00,Wunderground v.1.15,2013-09-06 10:55:00,
2013-09-06 06:57:00,55.7,53.4,30.26,East,84,0.0,0.0,92,0.00,,,0.00,Wunderground v.1.15,2013-09-06 10:57:00,
2013-09-06 06:58:00,55.7,53.4,30.26,East,84,0.0,0.0,92,0.00,,,0.00,Wunderground v.1.15,2013-09-06 10:58:00,
2013-09-06 07:02:00,55.6,53.6,30.27,East,84,0.0,0.0,93,0.00,,,0.00,Wunderground v.1.15,2013-09-06 11:02:00,
2013-09-06 07:03:00,55.6,53.6,30.27,East,84,0.0,0.0,93,0.00,,,0.00,Wunderground v.1.15,2013-09-06 11:03:00,
2013-09-06 07:04:00,55.6,53.6,30.27,East,84,0.0,0.0,93,0.00,,,0.00,Wunderground v.1.15,2013-09-06 11:04:00,
2013-09-06 07:07:00,55.5,53.5,30.27,East,84,0.0,0.0,93,0.00,,,0.00,Wunderground v.1.15,2013-09-06 11:07:00,
2013-09-06 07:08:00,55.5,53.5,30.27,East,84,0.0,0.0,93,0.00,,,0.00,Wunderground v.1.15,2013-09-06 11:08:00,
2013-09-06 07:09:00,55.5,53.5,30.27,East,84,0.0,0.0,93,0.00,,,0.00,Wunderground v.1.15,2013-09-06 11:09:00,
2013-09-06 07:13:00,55.5,53.5,30.27,East,84,0.0,1.0,93,0.00,,,0.00,Wunderground v.1.15,2013-09-06 11:13:00,
2013-09-06 07:14:00,55.5,53.5,30.27,East,84,1.0,1.0,93,0.00,,,0.00,Wunderground v.1.15,2013-09-06 11:14:00,
2013-09-06 07:15:00,55.5,53.5,30.27,East,84,1.0,1.0,93,0.00,,,0.00,Wunderground v.1.15,2013-09-06 11:15:00,
2013-09-06 07:18:00,55.6,53.9,30.27,East,84,0.0,2.0,94,0.00,,,0.00,Wunderground v.1.15,2013-09-06 11:18:00,
2013-09-06 07:19:00,55.7,54.0,30.27,East,84,0.0,2.0,94,0.00,,,0.00,Wunderground v.1.15,2013-09-06 11:19:00,
2013-09-06 07:20:00,55.7,54.0,30.27,East,84,0.0,1.0,94,0.00,,,0.00,Wunderground v.1.15,2013-09-06 11:20:00,
2013-09-06 07:23:00,55.8,54.4,30.27,East,84,0.0,2.0,95,0.00,,,0.00,Wunderground v.1.15,2013-09-06 11:23:00,
2013-09-06 07:24:00,55.8,54.4,30.27,East,84,0.0,2.0,95,0.00,,,0.00,Wunderground v.1.15,2013-09-06 11:24:00,
2013-09-06 07:25:00,55.9,54.5,30.27,East,84,0.0,2.0,95,0.00,,,0.00,Wunderground v.1.15,2013-09-06 11:25:00,
2013-09-06 07:28:00,56.0,54.3,30.27,East,84,0.0,2.0,94,0.00,,,0.00,Wunderground v.1.15,2013-09-06 11:28:00,
2013-09-06 07:29:00,56.0,54.3,30.27,East,84,0.0,2.0,94,0.00,,,0.00,Wunderground v.1.15,2013-09-06 11:29:00,
2013-09-06 07:30:00,56.0,54.3,30.27,East,84,0.0,0.0,94,0.00,,,0.00,Wunderground v.1.15,2013-09-06 11:30:00,
2013-09-06 07:31:00,56.0,54.3,30.27,East,84,0.0,0.0,94,0.00,,,0.00,Wunderground v.1.15,2013-09-06 11:31:00,
2013-09-06 07:32:00,56.0,54.3,30.27,East,84,0.0,0.0,94,0.00,,,0.00,Wunderground v.1.15,2013-09-06 11:32:00,
2013-09-06 07:33:00,56.0,54.3,30.27,East,84,0.0,0.0,94,0.00,,,0.00,Wunderground v.1.15,2013-09-06 11:33:00,
2013-09-06 07:34:00,56.0,54.3,30.27,East,84,0.0,0.0,94,0.00,,,0.00,Wunderground v.1.15,2013-09-06 11:34:00,
2013-09-06 07:35:00,56.0,54.3,30.27,East,84,0.0,0.0,94,0.00,,,0.00,Wunderground v.1.15,2013-09-06 11:35:00,
2013-09-06 07:36:00,56.1,54.4,30.27,East,84,0.0,0.0,94,0.00,,,0.00,Wunderground v.1.15,2013-09-06 11:36:00,
2013-09-06 07:37:00,56.1,54.4,30.27,East,84,0.0,0.0,94,0.00,,,0.00,Wunderground v.1.15,2013-09-06 11:37:00,
2013-09-06 07:38:00,56.1,54.4,30.27,East,84,0.0,0.0,94,0.00,,,0.00,Wunderground v.1.15,2013-09-06 11:38:00,
2013-09-06 07:39:00,56.1,54.4,30.27,East,84,0.0,0.0,94,0.00,,,0.00,Wunderground v.1.15,2013-09-06 11:39:00,
2013-09-06 07:41:00,56.2,54.5,30.27,East,84,0.0,0.0,94,0.00,,,0.00,Wunderground v.1.15,2013-09-06 11:41:00,
2013-09-06 07:42:00,56.2,54.5,30.28,East,84,0.0,0.0,94,0.00,,,0.00,Wunderground v.1.15,2013-09-06 11:42:00,
2013-09-06 07:43:00,56.3,54.6,30.28,East,84,0.0,0.0,94,0.00,,,0.00,Wunderground v.1.15,2013-09-06 11:43:00,
2013-09-06 07:44:00,56.3,54.6,30.28,East,84,0.0,0.0,94,0.00,,,0.00,Wunderground v.1.15,2013-09-06 11:44:00,
2013-09-06 07:47:00,56.5,54.8,30.28,South,177,1.0,2.0,94,0.00,,,0.00,Wunderground v.1.15,2013-09-06 11:47:00,
2013-09-06 07:48:00,56.5,54.8,30.28,South,178,0.0,2.0,94,0.00,,,0.00,Wunderground v.1.15,2013-09-06 11:48:00,
2013-09-06 07:50:00,56.5,54.8,30.28,South,178,0.0,0.0,94,0.00,,,0.00,Wunderground v.1.15,2013-09-06 11:50:00,
2013-09-06 07:52:00,56.5,54.8,30.28,South,178,0.0,0.0,94,0.00,,,0.00,Wunderground v.1.15,2013-09-06 11:52:00,
2013-09-06 07:53:00,56.6,54.9,30.28,South,178,0.0,0.0,94,0.00,,,0.00,Wunderground v.1.15,2013-09-06 11:53:00,
2013-09-06 07:54:00,56.6,54.9,30.28,South,178,0.0,0.0,94,0.00,,,0.00,Wunderground v.1.15,2013-09-06 11:54:00,
2013-09-06 07:55:00,56.6,54.9,30.28,South,178,0.0,0.0,94,0.00,,,0.00,Wunderground v.1.15,2013-09-06 11:55:00,
2013-09-06 07:58:00,56.7,55.0,30.28,South,178,0.0,0.0,94,0.00,,,0.00,Wunderground v.1.15,2013-09-06 11:58:00,
2013-09-06 07:59:00,56.8,55.1,30.28,South,178,0.0,0.0,94,0.00,,,0.00,Wunderground v.1.15,2013-09-06 11:59:00,
2013-09-06 08:00:00,56.9,55.2,30.28,South,178,0.0,0.0,94,0.00,,,0.00,Wunderground v.1.15,2013-09-06 12:00:00,
2013-09-06 08:03:00,57.0,55.3,30.28,South,178,0.0,0.0,94,0.00,,,0.00,Wunderground v.1.15,2013-09-06 12:03:00,
2013-09-06 08:04:00,57.1,55.4,30.28,South,178,0.0,0.0,94,0.00,,,0.00,Wunderground v.1.15,2013-09-06 12:04:00,
2013-09-06 08:05:00,57.1,55.4,30.28,South,178,0.0,0.0,94,0.00,,,0.00,Wunderground v.1.15,2013-09-06 12:05:00,
2013-09-06 08:08:00,57.4,55.7,30.28,South,178,0.0,0.0,94,0.00,,,0.00,Wunderground v.1.15,2013-09-06 12:08:00,
2013-09-06 08:09:00,57.4,55.7,30.28,South,178,0.0,0.0,94,0.00,,,0.00,Wunderground v.1.15,2013-09-06 12:09:00,
2013-09-06 08:10:00,57.5,55.8,30.28,South,178,0.0,0.0,94,0.00,,,0.00,Wunderground v.1.15,2013-09-06 12:10:00,
2013-09-06 08:11:00,57.5,55.8,30.28,South,178,0.0,0.0,94,0.00,,,0.00,Wunderground v.1.15,2013-09-06 12:11:00,
2013-09-06 08:13:00,57.7,55.7,30.28,South,178,0.0,0.0,93,0.00,,,0.00,Wunderground v.1.15,2013-09-06 12:13:00,
2013-09-06 08:14:00,57.8,55.8,30.28,South,178,0.0,0.0,93,0.00,,,0.00,Wunderground v.1.15,2013-09-06 12:14:00,
2013-09-06 08:15:00,57.9,55.9,30.28,South,178,1.0,1.0,93,0.00,,,0.00,Wunderground v.1.15,2013-09-06 12:15:00,
2013-09-06 08:16:00,57.9,56.2,30.28,South,178,0.0,1.0,94,0.00,,,0.00,Wunderground v.1.15,2013-09-06 12:16:00,
2013-09-06 08:18:00,58.1,56.1,30.28,South,178,0.0,2.0,93,0.00,,,0.00,Wunderground v.1.15,2013-09-06 12:18:00,
2013-09-06 08:19:00,58.1,56.1,30.28,South,178,1.0,2.0,93,0.00,,,0.00,Wunderground v.1.15,2013-09-06 12:19:00,
2013-09-06 08:21:00,58.2,56.2,30.28,South,178,1.0,2.0,93,0.00,,,0.00,Wunderground v.1.15,2013-09-06 12:21:00,
2013-09-06 08:22:00,58.2,56.2,30.28,South,178,0.0,2.0,93,0.00,,,0.00,Wunderground v.1.15,2013-09-06 12:22:00,
2013-09-06 08:23:00,58.3,56.3,30.28,South,178,0.0,2.0,93,0.00,,,0.00,Wunderground v.1.15,2013-09-06 12:23:00,
2013-09-06 08:24:00,58.3,56.3,30.28,South,178,0.0,2.0,93,0.00,,,0.00,Wunderground v.1.15,2013-09-06 12:24:00,
2013-09-06 08:26:00,58.4,56.4,30.28,South,178,0.0,2.0,93,0.00,,,0.00,Wunderground v.1.15,2013-09-06 12:26:00,
2013-09-06 08:27:00,58.5,56.5,30.28,South,178,1.0,2.0,93,0.00,,,0.00,Wunderground v.1.15,2013-09-06 12:27:00,
2013-09-06 08:28:00,58.6,56.6,30.28,South,178,1.0,2.0,93,0.00,,,0.00,Wunderground v.1.15,2013-09-06 12:28:00,
2013-09-06 08:29:00,58.6,56.6,30.28,South,175,0.0,2.0,93,0.00,,,0.00,Wunderground v.1.15,2013-09-06 12:29:00,
2013-09-06 08:30:00,58.7,56.7,30.28,South,175,1.0,1.0,93,0.00,,,0.00,Wunderground v.1.15,2013-09-06 12:30:00,
2013-09-06 08:31:00,58.7,56.7,30.28,SSE,165,1.0,2.0,93,0.00,,,0.00,Wunderground v.1.15,2013-09-06 12:31:00,
2013-09-06 08:33:00,58.9,56.6,30.28,SSE,165,0.0,2.0,92,0.00,,,0.00,Wunderground v.1.15,2013-09-06 12:33:00,
2013-09-06 08:34:00,58.9,56.0,30.28,SSE,165,1.0,2.0,90,0.00,,,0.00,Wunderground v.1.15,2013-09-06 12:34:00,
2013-09-06 08:35:00,59.0,56.1,30.28,SSE,165,1.0,2.0,90,0.00,,,0.00,Wunderground v.1.15,2013-09-06 12:35:00,
2013-09-06 08:36:00,59.1,56.2,30.28,NE,53,1.0,3.0,90,0.00,,,0.00,Wunderground v.1.15,2013-09-06 12:36:00,
2013-09-06 08:39:00,59.4,56.8,30.28,NE,49,0.0,3.0,91,0.00,,,0.00,Wunderground v.1.15,2013-09-06 12:39:00,
2013-09-06 08:40:00,59.5,56.9,30.28,NE,49,0.0,1.0,91,0.00,,,0.00,Wunderground v.1.15,2013-09-06 12:40:00,
2013-09-06 08:41:00,59.6,57.0,30.28,ENE,57,1.0,2.0,91,0.00,,,0.00,Wunderground v.1.15,2013-09-06 12:41:00,
2013-09-06 08:44:00,59.7,57.1,30.28,ENE,57,0.0,2.0,91,0.00,,,0.00,Wunderground v.1.15,2013-09-06 12:44:00,
2013-09-06 08:45:00,59.7,57.1,30.29,ENE,57,0.0,2.0,91,0.00,,,0.00,Wunderground v.1.15,2013-09-06 12:45:00,
2013-09-06 08:46:00,59.8,57.2,30.28,ENE,57,0.0,2.0,91,0.00,,,0.00,Wunderground v.1.15,2013-09-06 12:46:00,
2013-09-06 08:49:00,59.9,57.3,30.28,SSE,148,0.0,2.0,91,0.00,,,0.00,Wunderground v.1.15,2013-09-06 12:49:00,
2013-09-06 08:50:00,60.0,57.4,30.28,SSE,168,0.0,1.0,91,0.00,,,0.00,Wunderground v.1.15,2013-09-06 12:50:00,
2013-09-06 08:51:00,60.1,57.5,30.28,SSE,168,0.0,1.0,91,0.00,,,0.00,Wunderground v.1.15,2013-09-06 12:51:00,
2013-09-06 08:52:00,60.1,57.2,30.28,SSE,168,0.0,1.0,90,0.00,,,0.00,Wunderground v.1.15,2013-09-06 12:52:00,
2013-09-06 08:55:00,60.4,57.5,30.29,East,96,0.0,2.0,90,0.00,,,0.00,Wunderground v.1.15,2013-09-06 12:55:00,
2013-09-06 08:56:00,60.5,57.2,30.29,West,266,0.0,2.0,89,0.00,,,0.00,Wunderground v.1.15,2013-09-06 12:56:00,
2013-09-06 08:57:00,60.6,57.3,30.29,South,184,2.0,2.0,89,0.00,,,0.00,Wunderground v.1.15,2013-09-06 12:57:00,
2013-09-06 09:00:00,60.8,56.9,30.29,South,184,0.0,0.0,87,0.00,,,0.00,Wunderground v.1.15,2013-09-06 13:00:00,
2013-09-06 09:01:00,60.8,56.9,30.29,South,184,0.0,0.0,87,0.00,,,0.00,Wunderground v.1.15,2013-09-06 13:01:00,
2013-09-06 09:02:00,60.9,57.0,30.29,SSE,164,3.0,3.0,87,0.00,,,0.00,Wunderground v.1.15,2013-09-06 13:02:00,
2013-09-06 09:06:00,61.2,56.7,30.28,ENE,61,2.0,3.0,85,0.00,,,0.00,Wunderground v.1.15,2013-09-06 13:06:00,
2013-09-06 09:07:00,61.4,56.8,30.28,ENE,61,0.0,3.0,85,0.00,,,0.00,Wunderground v.1.15,2013-09-06 13:07:00,
2013-09-06 09:11:00,61.8,56.6,30.28,SSE,165,1.0,3.0,83,0.00,,,0.00,Wunderground v.1.15,2013-09-06 13:11:00,
2013-09-06 09:12:00,61.9,57.0,30.28,SSE,165,1.0,3.0,84,0.00,,,0.00,Wunderground v.1.15,2013-09-06 13:12:00,
2013-09-06 09:13:00,61.9,56.7,30.28,SSE,161,0.0,3.0,83,0.00,,,0.00,Wunderground v.1.15,2013-09-06 13:13:00,
2013-09-06 09:14:00,62.1,56.9,30.28,East,86,3.0,3.0,83,0.00,,,0.00,Wunderground v.1.15,2013-09-06 13:14:00,
2013-09-06 09:16:00,62.2,56.6,30.28,SE,125,0.0,3.0,82,0.00,,,0.00,Wunderground v.1.15,2013-09-06 13:16:00,
2013-09-06 09:17:00,62.3,57.1,30.28,South,184,2.0,3.0,83,0.00,,,0.00,Wunderground v.1.15,2013-09-06 13:17:00,
2013-09-06 09:19:00,62.4,56.8,30.28,SE,146,2.0,3.0,82,0.00,,,0.00,Wunderground v.1.15,2013-09-06 13:19:00,
2013-09-06 09:20:00,62.4,56.8,30.28,SSE,154,2.0,2.0,82,0.00,,,0.00,Wunderground v.1.15,2013-09-06 13:20:00,
2013-09-06 09:21:00,62.5,56.6,30.28,SE,138,3.0,3.0,81,0.00,,,0.00,Wunderground v.1.15,2013-09-06 13:21:00,
2013-09-06 09:22:00,62.6,56.7,30.29,SSE,156,2.0,3.0,81,0.00,,,0.00,Wunderground v.1.15,2013-09-06 13:22:00,
2013-09-06 09:23:00,62.6,56.7,30.29,SSE,157,2.0,3.0,81,0.00,,,0.00,Wunderground v.1.15,2013-09-06 13:23:00,
2013-09-06 09:24:00,62.6,56.7,30.29,SSE,161,3.0,3.0,81,0.00,,,0.00,Wunderground v.1.15,2013-09-06 13:24:00,
2013-09-06 09:25:00,62.6,56.7,30.29,SSE,167,3.0,3.0,81,0.00,,,0.00,Wunderground v.1.15,2013-09-06 13:25:00,
2013-09-06 09:26:00,62.7,56.8,30.29,SE,146,2.0,5.0,81,0.00,,,0.00,Wunderground v.1.15,2013-09-06 13:26:00,
2013-09-06 09:27:00,62.7,56.8,30.29,SSE,163,3.0,5.0,81,0.00,,,0.00,Wunderground v.1.15,2013-09-06 13:27:00,
2013-09-06 09:29:00,62.8,56.5,30.29,SSE,149,1.0,5.0,80,0.00,,,0.00,Wunderground v.1.15,2013-09-06 13:29:00,
2013-09-06 09:30:00,62.9,56.6,30.29,SE,132,1.0,5.0,80,0.00,,,0.00,Wunderground v.1.15,2013-09-06 13:30:00,
2013-09-06 09:31:00,62.9,56.6,30.29,SE,132,1.0,5.0,80,0.00,,,0.00,Wunderground v.1.15,2013-09-06 13:31:00,
2013-09-06 09:32:00,62.9,56.6,30.29,ESE,117,0.0,5.0,80,0.00,,,0.00,Wunderground v.1.15,2013-09-06 13:32:00,
2013-09-06 09:33:00,62.9,57.0,30.29,ESE,117,0.0,5.0,81,0.00,,,0.00,Wunderground v.1.15,2013-09-06 13:33:00,
2013-09-06 09:34:00,63.0,56.7,30.29,ESE,121,0.0,5.0,80,0.00,,,0.00,Wunderground v.1.15,2013-09-06 13:34:00,
2013-09-06 09:35:00,63.0,56.7,30.29,ENE,71,1.0,5.0,80,0.00,,,0.00,Wunderground v.1.15,2013-09-06 13:35:00,
2013-09-06 09:36:00,63.0,56.7,30.29,ENE,71,1.0,5.0,80,0.00,,,0.00,Wunderground v.1.15,2013-09-06 13:36:00,
2013-09-06 09:37:00,63.0,57.1,30.29,East,89,1.0,5.0,81,0.00,,,0.00,Wunderground v.1.15,2013-09-06 13:37:00,
2013-09-06 09:38:00,63.0,56.7,30.29,East,92,0.0,5.0,80,0.00,,,0.00,Wunderground v.1.15,2013-09-06 13:38:00,
2013-09-06 09:40:00,63.1,56.8,30.29,East,93,0.0,1.0,80,0.00,,,0.00,Wunderground v.1.15,2013-09-06 13:40:00,
2013-09-06 09:41:00,63.1,56.8,30.29,East,93,0.0,2.0,80,0.00,,,0.00,Wunderground v.1.15,2013-09-06 13:41:00,
2013-09-06 09:42:00,63.1,56.8,30.29,East,93,0.0,2.0,80,0.00,,,0.00,Wunderground v.1.15,2013-09-06 13:42:00,
2013-09-06 09:43:00,63.1,57.2,30.29,ESE,112,0.0,2.0,81,0.00,,,0.00,Wunderground v.1.15,2013-09-06 13:43:00,
2013-09-06 09:46:00,63.2,57.6,30.29,SSE,165,1.0,2.0,82,0.00,,,0.00,Wunderground v.1.15,2013-09-06 13:46:00,
2013-09-06 09:47:00,63.2,57.6,30.29,South,173,3.0,4.0,82,0.00,,,0.00,Wunderground v.1.15,2013-09-06 13:47:00,
2013-09-06 09:48:00,63.2,57.3,30.29,SSE,157,0.0,4.0,81,0.00,,,0.00,Wunderground v.1.15,2013-09-06 13:48:00,
2013-09-06 09:50:00,63.2,57.3,30.29,South,170,3.0,3.0,81,0.00,,,0.00,Wunderground v.1.15,2013-09-06 13:50:00,
2013-09-06 09:52:00,63.2,57.3,30.29,South,169,1.0,4.0,81,0.00,,,0.00,Wunderground v.1.15,2013-09-06 13:52:00,
2013-09-06 09:53:00,63.2,57.3,30.29,South,169,1.0,4.0,81,0.00,,,0.00,Wunderground v.1.15,2013-09-06 13:53:00,
2013-09-06 09:54:00,63.2,57.3,30.29,SSE,163,0.0,4.0,81,0.00,,,0.00,Wunderground v.1.15,2013-09-06 13:54:00,
2013-09-06 09:55:00,63.3,57.4,30.29,SSE,163,0.0,4.0,81,0.00,,,0.00,Wunderground v.1.15,2013-09-06 13:55:00,
2013-09-06 09:57:00,63.3,57.0,30.29,South,186,3.0,4.0,80,0.00,,,0.00,Wunderground v.1.15,2013-09-06 13:57:00,
2013-09-06 09:58:00,63.4,57.1,30.29,SSE,168,2.0,4.0,80,0.00,,,0.00,Wunderground v.1.15,2013-09-06 13:58:00,
2013-09-06 09:59:00,63.4,57.1,30.29,South,175,5.0,5.0,80,0.00,,,0.00,Wunderground v.1.15,2013-09-06 13:59:00,
2013-09-06 10:00:00,63.3,57.0,30.29,SE,132,4.0,4.0,80,0.00,,,0.00,Wunderground v.1.15,2013-09-06 14:00:00,
2013-09-06 10:02:00,63.4,57.1,30.29,SSE,159,2.0,4.0,80,0.00,,,0.00,Wunderground v.1.15,2013-09-06 14:02:00,
2013-09-06 10:03:00,63.4,57.1,30.29,SSE,158,1.0,4.0,80,0.00,,,0.00,Wunderground v.1.15,2013-09-06 14:03:00,
2013-09-06 10:05:00,63.4,57.1,30.29,SSE,163,1.0,4.0,80,0.00,,,0.00,Wunderground v.1.15,2013-09-06 14:05:00,
2013-09-06 10:08:00,63.4,56.8,30.29,South,178,1.0,5.0,79,0.00,,,0.00,Wunderground v.1.15,2013-09-06 14:08:00,
2013-09-06 10:10:00,63.4,57.1,30.29,South,180,1.0,2.0,80,0.00,,,0.00,Wunderground v.1.15,2013-09-06 14:10:00,
2013-09-06 10:11:00,63.4,57.1,30.29,SSE,162,3.0,3.0,80,0.00,,,0.00,Wunderground v.1.15,2013-09-06 14:11:00,
2013-09-06 10:13:00,63.5,57.2,30.29,SE,144,2.0,3.0,80,0.00,,,0.00,Wunderground v.1.15,2013-09-06 14:13:00,
2013-09-06 10:14:00,63.5,57.2,30.29,South,176,2.0,3.0,80,0.00,,,0.00,Wunderground v.1.15,2013-09-06 14:14:00,
2013-09-06 10:15:00,63.5,57.2,30.29,SE,139,3.0,4.0,80,0.00,,,0.00,Wunderground v.1.15,2013-09-06 14:15:00,
2013-09-06 10:17:00,63.6,57.3,30.29,South,174,2.0,5.0,80,0.00,,,0.00,Wunderground v.1.15,2013-09-06 14:17:00,
2013-09-06 10:18:00,63.6,57.3,30.29,SSE,157,5.0,5.0,80,0.00,,,0.00,Wunderground v.1.15,2013-09-06 14:18:00,
2013-09-06 10:20:00,63.8,57.5,30.29,SSE,151,1.0,2.0,80,0.00,,,0.00,Wunderground v.1.15,2013-09-06 14:20:00,
2013-09-06 10:23:00,63.8,57.5,30.29,East,96,2.0,6.0,80,0.00,,,0.00,Wunderground v.1.15,2013-09-06 14:23:00,
2013-09-06 10:24:00,63.8,57.5,30.29,ESE,109,1.0,6.0,80,0.00,,,0.00,Wunderground v.1.15,2013-09-06 14:24:00,
2013-09-06 10:25:00,63.8,57.2,30.29,South,173,6.0,7.0,79,0.00,,,0.00,Wunderground v.1.15,2013-09-06 14:25:00,
2013-09-06 10:27:00,63.8,57.5,30.29,SSW,205,2.0,7.0,80,0.00,,,0.00,Wunderground v.1.15,2013-09-06 14:27:00,
2013-09-06 10:29:00,63.7,57.4,30.29,South,181,1.0,7.0,80,0.00,,,0.00,Wunderground v.1.15,2013-09-06 14:29:00,
2013-09-06 10:30:00,63.7,57.4,30.29,South,181,4.0,4.0,80,0.00,,,0.00,Wunderground v.1.15,2013-09-06 14:30:00,
2013-09-06 10:31:00,63.6,57.3,30.29,SSE,150,2.0,4.0,80,0.00,,,0.00,Wunderground v.1.15,2013-09-06 14:31:00,
2013-09-06 10:32:00,63.6,57.3,30.29,SSW,200,4.0,5.0,80,0.00,,,0.00,Wunderground v.1.15,2013-09-06 14:32:00,
2013-09-06 10:34:00,63.6,57.3,30.29,South,169,4.0,6.0,80,0.00,,,0.00,Wunderground v.1.15,2013-09-06 14:34:00,
2013-09-06 10:36:00,63.6,57.3,30.29,South,180,6.0,7.0,80,0.00,,,0.00,Wunderground v.1.15,2013-09-06 14:36:00,
2013-09-06 10:38:00,63.6,57.3,30.29,SSE,164,5.0,7.0,80,0.00,,,0.00,Wunderground v.1.15,2013-09-06 14:38:00,
2013-09-06 10:39:00,63.6,57.3,30.29,SSE,165,1.0,7.0,80,0.00,,,0.00,Wunderground v.1.15,2013-09-06 14:39:00,
2013-09-06 10:40:00,63.6,57.3,30.29,West,263,1.0,3.0,80,0.00,,,0.00,Wunderground v.1.15,2013-09-06 14:40:00,
2013-09-06 10:41:00,63.6,57.3,30.29,SSE,162,7.0,7.0,80,0.00,,,0.00,Wunderground v.1.15,2013-09-06 14:41:00,
2013-09-06 10:43:00,63.6,57.7,30.29,South,178,5.0,7.0,81,0.00,,,0.00,Wunderground v.1.15,2013-09-06 14:43:00,
2013-09-06 10:44:00,63.6,57.3,30.29,South,169,5.0,7.0,80,0.00,,,0.00,Wunderground v.1.15,2013-09-06 14:44:00,
2013-09-06 10:45:00,63.6,57.7,30.29,West,278,0.0,7.0,81,0.00,,,0.00,Wunderground v.1.15,2013-09-06 14:45:00,
2013-09-06 10:46:00,63.6,57.3,30.29,South,177,2.0,7.0,80,0.00,,,0.00,Wunderground v.1.15,2013-09-06 14:46:00,
2013-09-06 10:49:00,63.6,57.7,30.29,West,276,1.0,7.0,81,0.00,,,0.00,Wunderground v.1.15,2013-09-06 14:49:00,
2013-09-06 10:50:00,63.6,57.7,30.29,SSW,206,2.0,3.0,81,0.00,,,0.00,Wunderground v.1.15,2013-09-06 14:50:00,
2013-09-06 10:51:00,63.6,57.7,30.30,SE,134,4.0,4.0,81,0.00,,,0.00,Wunderground v.1.15,2013-09-06 14:51:00,
2013-09-06 10:54:00,63.9,58.0,30.29,SSW,192,5.0,7.0,81,0.00,,,0.00,Wunderground v.1.15,2013-09-06 14:54:00,
2013-09-06 10:55:00,63.9,58.0,30.29,SSE,167,2.0,7.0,81,0.00,,,0.00,Wunderground v.1.15,2013-09-06 14:55:00,
2013-09-06 10:56:00,64.0,58.1,30.30,SSE,159,2.0,7.0,81,0.00,,,0.00,Wunderground v.1.15,2013-09-06 14:56:00,
2013-09-06 10:57:00,64.1,58.1,30.29,SSE,158,2.0,7.0,81,0.00,,,0.00,Wunderground v.1.15,2013-09-06 14:57:00,
2013-09-06 10:58:00,64.2,58.2,30.29,SSE,153,2.0,7.0,81,0.00,,,0.00,Wunderground v.1.15,2013-09-06 14:58:00,
2013-09-06 11:00:00,64.4,58.1,30.30,South,174,2.0,4.0,80,0.00,,,0.00,Wunderground v.1.15,2013-09-06 15:00:00,
2013-09-06 11:01:00,64.5,58.2,30.30,South,187,4.0,4.0,80,0.00,,,0.00,Wunderground v.1.15,2013-09-06 15:01:00,
2013-09-06 11:02:00,64.5,58.2,30.30,SE,143,4.0,4.0,80,0.00,,,0.00,Wunderground v.1.15,2013-09-06 15:02:00,
2013-09-06 11:03:00,64.5,58.2,30.30,SSE,156,4.0,4.0,80,0.00,,,0.00,Wunderground v.1.15,2013-09-06 15:03:00,
2013-09-06 11:05:00,64.7,58.4,30.30,SSE,163,4.0,5.0,80,0.00,,,0.00,Wunderground v.1.15,2013-09-06 15:05:00,
2013-09-06 11:06:00,64.8,58.5,30.30,South,186,1.0,5.0,80,0.00,,,0.00,Wunderground v.1.15,2013-09-06 15:06:00,
2013-09-06 11:07:00,64.8,58.5,30.30,South,180,2.0,5.0,80,0.00,,,0.00,Wunderground v.1.15,2013-09-06 15:07:00,
2013-09-06 11:08:00,64.8,58.1,30.30,SSE,152,6.0,6.0,79,0.00,,,0.00,Wunderground v.1.15,2013-09-06 15:08:00,
2013-09-06 11:09:00,64.8,58.1,30.30,SSE,163,4.0,6.0,79,0.00,,,0.00,Wunderground v.1.15,2013-09-06 15:09:00,
2013-09-06 11:10:00,64.8,58.1,30.30,SSE,157,4.0,6.0,79,0.00,,,0.00,Wunderground v.1.15,2013-09-06 15:10:00,
2013-09-06 11:12:00,64.8,58.1,30.30,South,173,3.0,7.0,79,0.00,,,0.00,Wunderground v.1.15,2013-09-06 15:12:00,
2013-09-06 11:13:00,64.8,58.1,30.30,South,175,2.0,7.0,79,0.00,,,0.00,Wunderground v.1.15,2013-09-06 15:13:00,
2013-09-06 11:14:00,64.8,58.5,30.30,SE,135,3.0,8.0,80,0.00,,,0.00,Wunderground v.1.15,2013-09-06 15:14:00,
2013-09-06 11:15:00,64.8,58.5,30.30,SSE,167,2.0,8.0,80,0.00,,,0.00,Wunderground v.1.15,2013-09-06 15:15:00,
2013-09-06 11:17:00,64.8,58.1,30.30,SSW,212,1.0,8.0,79,0.00,,,0.00,Wunderground v.1.15,2013-09-06 15:17:00,
2013-09-06 11:18:00,64.8,58.1,30.29,SSW,211,3.0,8.0,79,0.00,,,0.00,Wunderground v.1.15,2013-09-06 15:18:00,
2013-09-06 11:19:00,64.8,58.1,30.30,SSE,153,1.0,8.0,79,0.00,,,0.00,Wunderground v.1.15,2013-09-06 15:19:00,
2013-09-06 11:20:00,64.8,58.1,30.30,South,172,2.0,3.0,79,0.00,,,0.00,Wunderground v.1.15,2013-09-06 15:20:00,
2013-09-06 11:22:00,64.8,58.1,30.30,South,190,5.0,6.0,79,0.00,,,0.00,Wunderground v.1.15,2013-09-06 15:22:00,
2013-09-06 11:23:00,64.8,58.1,30.30,South,190,2.0,6.0,79,0.00,,,0.00,Wunderground v.1.15,2013-09-06 15:23:00,
2013-09-06 11:24:00,64.8,58.1,30.29,South,178,2.0,6.0,79,0.00,,,0.00,Wunderground v.1.15,2013-09-06 15:24:00,
2013-09-06 11:25:00,64.7,58.0,30.29,ESE,113,2.0,6.0,79,0.00,,,0.00,Wunderground v.1.15,2013-09-06 15:25:00,
2013-09-06 11:28:00,64.7,58.0,30.29,SE,143,2.0,6.0,79,0.00,,,0.00,Wunderground v.1.15,2013-09-06 15:28:00,
2013-09-06 11:31:00,64.9,58.2,30.29,SSE,161,1.0,4.0,79,0.00,,,0.00,Wunderground v.1.15,2013-09-06 15:31:00,
2013-09-06 11:33:00,65.0,58.3,30.29,South,169,3.0,4.0,79,0.00,,,0.00,Wunderground v.1.15,2013-09-06 15:33:00,
2013-09-06 11:34:00,65.2,58.5,30.30,SSE,165,3.0,4.0,79,0.00,,,0.00,Wunderground v.1.15,2013-09-06 15:34:00,
2013-09-06 11:36:00,65.3,58.3,30.30,South,184,0.0,4.0,78,0.00,,,0.00,Wunderground v.1.15,2013-09-06 15:36:00,
2013-09-06 11:38:00,65.4,58.4,30.30,SSE,164,5.0,6.0,78,0.00,,,0.00,Wunderground v.1.15,2013-09-06 15:38:00,
2013-09-06 11:39:00,65.4,58.0,30.30,South,180,5.0,6.0,77,0.00,,,0.00,Wunderground v.1.15,2013-09-06 15:39:00,
2013-09-06 11:41:00,65.5,58.1,30.30,NE,34,0.0,5.0,77,0.00,,,0.00,Wunderground v.1.15,2013-09-06 15:41:00,
2013-09-06 11:42:00,65.6,58.2,30.30,NNE,20,2.0,5.0,77,0.00,,,0.00,Wunderground v.1.15,2013-09-06 15:42:00,
2013-09-06 11:43:00,65.6,58.2,30.30,ENE,57,0.0,5.0,77,0.00,,,0.00,Wunderground v.1.15,2013-09-06 15:43:00,
2013-09-06 11:44:00,65.6,58.2,30.30,ESE,122,0.0,5.0,77,0.00,,,0.00,Wunderground v.1.15,2013-09-06 15:44:00,
2013-09-06 11:45:00,65.7,57.9,30.30,SW,221,1.0,5.0,76,0.00,,,0.00,Wunderground v.1.15,2013-09-06 15:45:00,
2013-09-06 11:46:00,65.7,57.9,30.29,ESE,109,1.0,5.0,76,0.00,,,0.00,Wunderground v.1.15,2013-09-06 15:46:00,
2013-09-06 11:48:00,65.7,58.3,30.29,ESE,103,2.0,5.0,77,0.00,,,0.00,Wunderground v.1.15,2013-09-06 15:48:00,
2013-09-06 11:49:00,65.8,58.4,30.30,SSE,151,3.0,5.0,77,0.00,,,0.00,Wunderground v.1.15,2013-09-06 15:49:00,
2013-09-06 11:50:00,65.8,58.0,30.29,WSW,238,1.0,4.0,76,0.00,,,0.00,Wunderground v.1.15,2013-09-06 15:50:00,
2013-09-06 11:51:00,65.8,57.7,30.29,South,187,1.0,4.0,75,0.00,,,0.00,Wunderground v.1.15,2013-09-06 15:51:00,
2013-09-06 11:53:00,65.8,58.0,30.29,South,171,2.0,5.0,76,0.00,,,0.00,Wunderground v.1.15,2013-09-06 15:53:00,
2013-09-06 11:54:00,65.8,58.0,30.29,SSE,161,3.0,5.0,76,0.00,,,0.00,Wunderground v.1.15,2013-09-06 15:54:00,
2013-09-06 11:55:00,65.8,57.7,30.29,SSE,161,1.0,5.0,75,0.00,,,0.00,Wunderground v.1.15,2013-09-06 15:55:00,
2013-09-06 11:56:00,65.8,57.7,30.29,SSE,150,1.0,5.0,75,0.00,,,0.00,Wunderground v.1.15,2013-09-06 15:56:00,
2013-09-06 11:58:00,65.8,57.7,30.29,SE,137,2.0,5.0,75,0.00,,,0.00,Wunderground v.1.15,2013-09-06 15:58:00,
2013-09-06 11:59:00,65.8,57.7,30.29,SE,139,1.0,5.0,75,0.00,,,0.00,Wunderground v.1.15,2013-09-06 15:59:00,
2013-09-06 12:00:00,65.8,58.0,30.29,ENE,70,3.0,3.0,76,0.00,,,0.00,Wunderground v.1.15,2013-09-06 16:00:00,
2013-09-06 12:01:00,65.8,58.0,30.29,ESE,105,3.0,5.0,76,0.00,,,0.00,Wunderground v.1.15,2013-09-06 16:01:00,
2013-09-06 12:03:00,65.7,57.9,30.29,SSE,157,3.0,5.0,76,0.00,,,0.00,Wunderground v.1.15,2013-09-06 16:03:00,
2013-09-06 12:04:00,65.7,57.9,30.29,SSE,149,2.0,5.0,76,0.00,,,0.00,Wunderground v.1.15,2013-09-06 16:04:00,
2013-09-06 12:05:00,65.7,57.9,30.29,SSE,159,0.0,5.0,76,0.00,,,0.00,Wunderground v.1.15,2013-09-06 16:05:00,
2013-09-06 12:06:00,65.8,58.0,30.29,SSE,161,0.0,5.0,76,0.00,,,0.00,Wunderground v.1.15,2013-09-06 16:06:00,
2013-09-06 12:09:00,65.9,58.5,30.29,ESE,115,0.0,5.0,77,0.00,,,0.00,Wunderground v.1.15,2013-09-06 16:09:00,
2013-09-06 12:10:00,66.0,58.2,30.29,East,101,2.0,4.0,76,0.00,,,0.00,Wunderground v.1.15,2013-09-06 16:10:00,
2013-09-06 12:12:00,66.1,58.3,30.29,NE,51,1.0,4.0,76,0.00,,,0.00,Wunderground v.1.15,2013-09-06 16:12:00,
2013-09-06 12:14:00,66.5,58.7,30.29,NE,53,2.0,4.0,76,0.00,,,0.00,Wunderground v.1.15,2013-09-06 16:14:00,
2013-09-06 12:15:00,66.6,59.2,30.29,East,92,5.0,5.0,77,0.00,,,0.00,Wunderground v.1.15,2013-09-06 16:15:00,
2013-09-06 12:16:00,66.8,59.4,30.29,East,93,5.0,5.0,77,0.00,,,0.00,Wunderground v.1.15,2013-09-06 16:16:00,
2013-09-06 12:17:00,67.1,59.3,30.29,SE,136,2.0,6.0,76,0.00,,,0.00,Wunderground v.1.15,2013-09-06 16:17:00,
2013-09-06 12:19:00,67.4,58.4,30.29,ESE,118,1.0,6.0,73,0.00,,,0.00,Wunderground v.1.15,2013-09-06 16:19:00,
2013-09-06 12:21:00,67.6,58.6,30.29,East,87,3.0,3.0,73,0.00,,,0.00,Wunderground v.1.15,2013-09-06 16:21:00,
2013-09-06 12:22:00,67.7,58.7,30.29,East,84,2.0,7.0,73,0.00,,,0.00,Wunderground v.1.15,2013-09-06 16:22:00,
2013-09-06 12:23:00,67.8,59.2,30.29,East,89,1.0,7.0,74,0.00,,,0.00,Wunderground v.1.15,2013-09-06 16:23:00,
2013-09-06 12:24:00,68.0,59.4,30.29,East,86,1.0,7.0,74,0.00,,,0.00,Wunderground v.1.15,2013-09-06 16:24:00,
2013-09-06 12:26:00,68.3,58.9,30.29,ENE,61,0.0,7.0,72,0.00,,,0.00,Wunderground v.1.15,2013-09-06 16:26:00,
2013-09-06 12:27:00,68.4,58.6,30.29,East,87,2.0,7.0,71,0.00,,,0.00,Wunderground v.1.15,2013-09-06 16:27:00,
2013-09-06 12:28:00,68.5,58.7,30.29,NE,41,3.0,7.0,71,0.00,,,0.00,Wunderground v.1.15,2013-09-06 16:28:00,
2013-09-06 12:29:00,68.5,59.1,30.28,East,80,2.0,7.0,72,0.00,,,0.00,Wunderground v.1.15,2013-09-06 16:29:00,
2013-09-06 12:31:00,68.6,58.8,30.28,East,84,1.0,2.0,71,0.00,,,0.00,Wunderground v.1.15,2013-09-06 16:31:00,
2013-09-06 12:32:00,68.7,58.9,30.28,NE,38,0.0,3.0,71,0.00,,,0.00,Wunderground v.1.15,2013-09-06 16:32:00,
2013-09-06 12:34:00,68.7,58.9,30.28,WNW,297,1.0,3.0,71,0.00,,,0.00,Wunderground v.1.15,2013-09-06 16:34:00,
2013-09-06 12:35:00,68.7,58.9,30.28,South,184,2.0,4.0,71,0.00,,,0.00,Wunderground v.1.15,2013-09-06 16:35:00,
2013-09-06 12:36:00,68.8,59.0,30.28,ESE,112,3.0,4.0,71,0.00,,,0.00,Wunderground v.1.15,2013-09-06 16:36:00,
2013-09-06 12:37:00,68.9,59.1,30.28,ENE,78,2.0,7.0,71,0.00,,,0.00,Wunderground v.1.15,2013-09-06 16:37:00,
2013-09-06 12:38:00,69.0,58.8,30.28,East,91,3.0,7.0,70,0.00,,,0.00,Wunderground v.1.15,2013-09-06 16:38:00,
2013-09-06 12:40:00,69.0,58.4,30.28,NNW,341,1.0,3.0,69,0.00,,,0.00,Wunderground v.1.15,2013-09-06 16:40:00,
2013-09-06 12:41:00,69.0,58.8,30.28,NW,308,2.0,6.0,70,0.00,,,0.00,Wunderground v.1.15,2013-09-06 16:41:00,
2013-09-06 12:43:00,68.8,59.0,30.28,East,86,1.0,6.0,71,0.00,,,0.00,Wunderground v.1.15,2013-09-06 16:43:00,
2013-09-06 12:45:00,68.9,59.1,30.28,NNE,21,3.0,6.0,71,0.00,,,0.00,Wunderground v.1.15,2013-09-06 16:45:00,
2013-09-06 12:46:00,68.9,59.1,30.28,NE,40,4.0,7.0,71,0.00,,,0.00,Wunderground v.1.15,2013-09-06 16:46:00,
2013-09-06 12:47:00,69.0,58.8,30.28,NE,35,5.0,7.0,70,0.00,,,0.00,Wunderground v.1.15,2013-09-06 16:47:00,
2013-09-06 12:48:00,69.1,58.5,30.28,NE,41,2.0,7.0,69,0.00,,,0.00,Wunderground v.1.15,2013-09-06 16:48:00,
2013-09-06 12:49:00,69.0,58.4,30.28,NW,314,3.0,7.0,69,0.00,,,0.00,Wunderground v.1.15,2013-09-06 16:49:00,
2013-09-06 12:50:00,69.0,58.0,30.28,NW,314,2.0,3.0,68,0.00,,,0.00,Wunderground v.1.15,2013-09-06 16:50:00,
2013-09-06 12:51:00,68.9,57.5,30.28,NW,326,2.0,4.0,67,0.00,,,0.00,Wunderground v.1.15,2013-09-06 16:51:00,
2013-09-06 12:52:00,68.8,57.4,30.28,NNE,24,5.0,5.0,67,0.00,,,0.00,Wunderground v.1.15,2013-09-06 16:52:00,
2013-09-06 12:54:00,68.7,57.3,30.28,NNE,19,5.0,7.0,67,0.00,,,0.00,Wunderground v.1.15,2013-09-06 16:54:00,
2013-09-06 12:55:00,68.7,57.7,30.28,WNW,293,4.0,7.0,68,0.00,,,0.00,Wunderground v.1.15,2013-09-06 16:55:00,
2013-09-06 12:56:00,68.7,57.7,30.28,WNW,300,3.0,7.0,68,0.00,,,0.00,Wunderground v.1.15,2013-09-06 16:56:00,
2013-09-06 12:57:00,68.8,57.4,30.28,North,5,0.0,7.0,67,0.00,,,0.00,Wunderground v.1.15,2013-09-06 16:57:00,
2013-09-06 12:59:00,68.9,58.3,30.28,East,93,3.0,7.0,69,0.00,,,0.00,Wunderground v.1.15,2013-09-06 16:59:00,
2013-09-06 13:00:00,69.2,59.0,30.28,East,79,3.0,3.0,70,0.00,,,0.00,Wunderground v.1.15,2013-09-06 17:00:00,
2013-09-06 13:01:00,69.5,59.7,30.28,ESE,103,4.0,7.0,71,0.00,,,0.00,Wunderground v.1.15,2013-09-06 17:01:00,
2013-09-06 13:02:00,69.8,59.2,30.28,East,94,3.0,7.0,69,0.00,,,0.00,Wunderground v.1.15,2013-09-06 17:02:00,
2013-09-06 13:04:00,70.0,58.5,30.28,SE,127,2.0,7.0,67,0.00,,,0.00,Wunderground v.1.15,2013-09-06 17:04:00,
2013-09-06 13:05:00,70.2,59.1,30.28,NE,36,2.0,7.0,68,0.00,,,0.00,Wunderground v.1.15,2013-09-06 17:05:00,
2013-09-06 13:06:00,70.4,58.9,30.28,NW,312,0.0,7.0,67,0.00,,,0.00,Wunderground v.1.15,2013-09-06 17:06:00,
2013-09-06 13:07:00,70.5,59.0,30.27,East,94,1.0,7.0,67,0.00,,,0.00,Wunderground v.1.15,2013-09-06 17:07:00,
2013-09-06 13:08:00,70.5,58.2,30.27,South,171,4.0,7.0,65,0.00,,,0.00,Wunderground v.1.15,2013-09-06 17:08:00,
2013-09-06 13:09:00,70.6,59.1,30.27,SE,144,0.0,7.0,67,0.00,,,0.00,Wunderground v.1.15,2013-09-06 17:09:00,
2013-09-06 13:11:00,70.8,59.3,30.27,NE,40,0.0,6.0,67,0.00,,,0.00,Wunderground v.1.15,2013-09-06 17:11:00,
2013-09-06 13:12:00,70.9,59.0,30.27,ENE,64,0.0,6.0,66,0.00,,,0.00,Wunderground v.1.15,2013-09-06 17:12:00,
2013-09-06 13:14:00,70.8,58.9,30.27,ENE,71,2.0,6.0,66,0.00,,,0.00,Wunderground v.1.15,2013-09-06 17:14:00,
2013-09-06 13:15:00,70.8,58.9,30.28,SSE,153,3.0,6.0,66,0.00,,,0.00,Wunderground v.1.15,2013-09-06 17:15:00,
2013-09-06 13:16:00,70.7,58.4,30.28,SSE,164,2.0,6.0,65,0.00,,,0.00,Wunderground v.1.15,2013-09-06 17:16:00,
2013-09-06 13:17:00,70.7,58.4,30.28,South,191,0.0,6.0,65,0.00,,,0.00,Wunderground v.1.15,2013-09-06 17:17:00,
2013-09-06 13:18:00,70.7,58.4,30.28,SW,230,1.0,6.0,65,0.00,,,0.00,Wunderground v.1.15,2013-09-06 17:18:00,
2013-09-06 13:19:00,70.6,58.3,30.28,WSW,243,3.0,6.0,65,0.00,,,0.00,Wunderground v.1.15,2013-09-06 17:19:00,
2013-09-06 13:20:00,70.4,58.1,30.27,West,259,0.0,1.0,65,0.00,,,0.00,Wunderground v.1.15,2013-09-06 17:20:00,
2013-09-06 13:22:00,70.4,58.1,30.27,North,351,0.0,2.0,65,0.00,,,0.00,Wunderground v.1.15,2013-09-06 17:22:00,
2013-09-06 13:24:00,70.4,58.5,30.27,SSW,204,3.0,4.0,66,0.00,,,0.00,Wunderground v.1.15,2013-09-06 17:24:00,
2013-09-06 13:25:00,70.6,58.7,30.27,South,180,0.0,4.0,66,0.00,,,0.00,Wunderground v.1.15,2013-09-06 17:25:00,
2013-09-06 13:28:00,71.0,59.1,30.27,SSE,155,5.0,5.0,66,0.00,,,0.00,Wunderground v.1.15,2013-09-06 17:28:00,
2013-09-06 13:29:00,71.1,59.2,30.27,SSE,158,4.0,6.0,66,0.00,,,0.00,Wunderground v.1.15,2013-09-06 17:29:00,
2013-09-06 13:30:00,71.2,59.7,30.27,SE,140,4.0,4.0,67,0.00,,,0.00,Wunderground v.1.15,2013-09-06 17:30:00,
2013-09-06 13:33:00,71.2,59.7,30.27,ENE,69,7.0,9.0,67,0.00,,,0.00,Wunderground v.1.15,2013-09-06 17:33:00,
2013-09-06 13:34:00,71.2,60.1,30.27,ESE,105,3.0,9.0,68,0.00,,,0.00,Wunderground v.1.15,2013-09-06 17:34:00,
2013-09-06 13:35:00,71.2,59.7,30.27,SE,143,5.0,9.0,67,0.00,,,0.00,Wunderground v.1.15,2013-09-06 17:35:00,
2013-09-06 13:36:00,71.2,59.7,30.27,ESE,115,5.0,9.0,67,0.00,,,0.00,Wunderground v.1.15,2013-09-06 17:36:00,
2013-09-06 13:38:00,71.2,59.3,30.27,NE,51,6.0,9.0,66,0.00,,,0.00,Wunderground v.1.15,2013-09-06 17:38:00,
2013-09-06 13:39:00,71.2,59.7,30.27,East,89,2.0,9.0,67,0.00,,,0.00,Wunderground v.1.15,2013-09-06 17:39:00,
2013-09-06 13:40:00,71.3,60.2,30.27,South,172,3.0,4.0,68,0.00,,,0.00,Wunderground v.1.15,2013-09-06 17:40:00,
2013-09-06 13:41:00,71.3,59.8,30.27,South,182,2.0,4.0,67,0.00,,,0.00,Wunderground v.1.15,2013-09-06 17:41:00,
2013-09-06 13:43:00,71.5,60.0,30.27,SE,128,1.0,5.0,67,0.00,,,0.00,Wunderground v.1.15,2013-09-06 17:43:00,
2013-09-06 13:44:00,71.5,59.5,30.27,SE,126,1.0,5.0,66,0.00,,,0.00,Wunderground v.1.15,2013-09-06 17:44:00,
2013-09-06 13:45:00,71.5,59.5,30.26,NNE,17,1.0,6.0,66,0.00,,,0.00,Wunderground v.1.15,2013-09-06 17:45:00,
2013-09-06 13:47:00,71.4,59.4,30.26,SW,223,1.0,6.0,66,0.00,,,0.00,Wunderground v.1.15,2013-09-06 17:47:00,
2013-09-06 13:48:00,71.4,59.4,30.26,SE,128,2.0,6.0,66,0.00,,,0.00,Wunderground v.1.15,2013-09-06 17:48:00,
2013-09-06 13:49:00,71.5,60.0,30.26,East,79,7.0,7.0,67,0.00,,,0.00,Wunderground v.1.15,2013-09-06 17:49:00,
2013-09-06 13:50:00,71.5,60.0,30.26,ENE,68,3.0,6.0,67,0.00,,,0.00,Wunderground v.1.15,2013-09-06 17:50:00,
2013-09-06 13:52:00,71.4,59.9,30.27,NE,34,3.0,6.0,67,0.00,,,0.00,Wunderground v.1.15,2013-09-06 17:52:00,
2013-09-06 13:53:00,71.4,59.9,30.27,NE,37,3.0,6.0,67,0.00,,,0.00,Wunderground v.1.15,2013-09-06 17:53:00,
2013-09-06 13:54:00,71.3,59.8,30.27,ENE,76,3.0,6.0,67,0.00,,,0.00,Wunderground v.1.15,2013-09-06 17:54:00,
2013-09-06 13:55:00,71.2,59.7,30.27,SSE,165,2.0,6.0,67,0.00,,,0.00,Wunderground v.1.15,2013-09-06 17:55:00,
2013-09-06 13:58:00,71.1,59.2,30.27,SSE,158,3.0,6.0,66,0.00,,,0.00,Wunderground v.1.15,2013-09-06 17:58:00,
2013-09-06 13:59:00,71.0,59.5,30.27,SSE,161,4.0,6.0,67,0.00,,,0.00,Wunderground v.1.15,2013-09-06 17:59:00,
2013-09-06 14:01:00,71.0,59.5,30.27,South,169,5.0,7.0,67,0.00,,,0.00,Wunderground v.1.15,2013-09-06 18:01:00,
2013-09-06 14:04:00,71.1,59.6,30.26,ESE,105,4.0,8.0,67,0.00,,,0.00,Wunderground v.1.15,2013-09-06 18:04:00,
2013-09-06 14:05:00,71.1,59.2,30.26,ENE,59,3.0,8.0,66,0.00,,,0.00,Wunderground v.1.15,2013-09-06 18:05:00,
2013-09-06 14:06:00,71.0,58.6,30.26,NE,55,4.0,8.0,65,0.00,,,0.00,Wunderground v.1.15,2013-09-06 18:06:00,
2013-09-06 14:09:00,70.6,58.7,30.26,ESE,120,2.0,8.0,66,0.00,,,0.00,Wunderground v.1.15,2013-09-06 18:09:00,
2013-09-06 14:10:00,70.5,58.6,30.26,NNE,29,4.0,5.0,66,0.00,,,0.00,Wunderground v.1.15,2013-09-06 18:10:00,
2013-09-06 14:11:00,70.4,58.5,30.26,North,5,3.0,5.0,66,0.00,,,0.00,Wunderground v.1.15,2013-09-06 18:11:00,
2013-09-06 14:14:00,70.4,59.3,30.26,ESE,102,2.0,5.0,68,0.00,,,0.00,Wunderground v.1.15,2013-09-06 18:14:00,
2013-09-06 14:15:00,70.4,59.3,30.26,SSE,158,1.0,5.0,68,0.00,,,0.00,Wunderground v.1.15,2013-09-06 18:15:00,
2013-09-06 14:16:00,70.4,59.3,30.26,ENE,76,0.0,5.0,68,0.00,,,0.00,Wunderground v.1.15,2013-09-06 18:16:00,
2013-09-06 14:17:00,70.5,59.4,30.26,ESE,105,2.0,5.0,68,0.00,,,0.00,Wunderground v.1.15,2013-09-06 18:17:00,
2013-09-06 14:19:00,70.6,59.1,30.25,East,91,0.0,5.0,67,0.00,,,0.00,Wunderground v.1.15,2013-09-06 18:19:00,
2013-09-06 14:20:00,70.7,59.2,30.25,North,355,5.0,6.0,67,0.00,,,0.00,Wunderground v.1.15,2013-09-06 18:20:00,
2013-09-06 14:22:00,70.7,59.2,30.25,NNE,25,5.0,6.0,67,0.00,,,0.00,Wunderground v.1.15,2013-09-06 18:22:00,
2013-09-06 14:25:00,70.7,59.2,30.25,SSE,148,3.0,6.0,67,0.00,,,0.00,Wunderground v.1.15,2013-09-06 18:25:00,
2013-09-06 14:27:00,70.8,59.3,30.25,South,176,5.0,6.0,67,0.00,,,0.00,Wunderground v.1.15,2013-09-06 18:27:00,
2013-09-06 14:28:00,70.8,59.3,30.25,East,81,3.0,6.0,67,0.00,,,0.00,Wunderground v.1.15,2013-09-06 18:28:00,
2013-09-06 14:30:00,70.9,59.4,30.25,East,86,0.0,3.0,67,0.00,,,0.00,Wunderground v.1.15,2013-09-06 18:30:00,
2013-09-06 14:32:00,70.8,59.3,30.25,South,178,6.0,6.0,67,0.00,,,0.00,Wunderground v.1.15,2013-09-06 18:32:00,
2013-09-06 14:33:00,70.8,59.3,30.25,SSE,160,0.0,7.0,67,0.00,,,0.00,Wunderground v.1.15,2013-09-06 18:33:00,
2013-09-06 14:34:00,70.9,59.4,30.25,NE,37,0.0,7.0,67,0.00,,,0.00,Wunderground v.1.15,2013-09-06 18:34:00,
2013-09-06 14:35:00,70.9,59.4,30.25,NNE,26,3.0,7.0,67,0.00,,,0.00,Wunderground v.1.15,2013-09-06 18:35:00,
2013-09-06 14:37:00,71.1,60.0,30.25,NE,53,1.0,7.0,68,0.00,,,0.00,Wunderground v.1.15,2013-09-06 18:37:00,
2013-09-06 14:38:00,71.3,59.4,30.25,East,90,3.0,7.0,66,0.00,,,0.00,Wunderground v.1.15,2013-09-06 18:38:00,
2013-09-06 14:40:00,71.5,59.1,30.25,South,171,0.0,2.0,65,0.00,,,0.00,Wunderground v.1.15,2013-09-06 18:40:00,
2013-09-06 14:41:00,71.5,58.7,30.25,NE,53,4.0,4.0,64,0.00,,,0.00,Wunderground v.1.15,2013-09-06 18:41:00,
2013-09-06 14:43:00,71.6,59.2,30.25,East,97,0.0,7.0,65,0.00,,,0.00,Wunderground v.1.15,2013-09-06 18:43:00,
2013-09-06 14:45:00,71.9,60.3,30.25,East,82,0.0,7.0,67,0.00,,,0.00,Wunderground v.1.15,2013-09-06 18:45:00,
2013-09-06 14:46:00,72.1,59.2,30.25,SSE,160,3.0,7.0,64,0.00,,,0.00,Wunderground v.1.15,2013-09-06 18:46:00,
2013-09-06 14:48:00,72.4,59.1,30.25,SW,225,0.0,7.0,63,0.00,,,0.00,Wunderground v.1.15,2013-09-06 18:48:00,
2013-09-06 14:50:00,72.6,59.3,30.25,East,85,5.0,5.0,63,0.00,,,0.00,Wunderground v.1.15,2013-09-06 18:50:00,
2013-09-06 14:51:00,72.8,59.9,30.25,ENE,65,2.0,5.0,64,0.00,,,0.00,Wunderground v.1.15,2013-09-06 18:51:00,
2013-09-06 14:53:00,72.8,59.5,30.25,NNE,22,3.0,5.0,63,0.00,,,0.00,Wunderground v.1.15,2013-09-06 18:53:00,
2013-09-06 14:56:00,72.8,59.5,30.25,East,86,0.0,5.0,63,0.00,,,0.00,Wunderground v.1.15,2013-09-06 18:56:00,
2013-09-06 14:57:00,72.8,59.5,30.24,ESE,111,2.0,5.0,63,0.00,,,0.00,Wunderground v.1.15,2013-09-06 18:57:00,
2013-09-06 14:58:00,73.0,59.2,30.24,ESE,107,1.0,5.0,62,0.00,,,0.00,Wunderground v.1.15,2013-09-06 18:58:00,
2013-09-06 14:59:00,73.0,59.2,30.24,ESE,106,1.0,5.0,62,0.00,,,0.00,Wunderground v.1.15,2013-09-06 18:59:00,
2013-09-06 15:01:00,73.1,59.3,30.24,South,169,3.0,4.0,62,0.00,,,0.00,Wunderground v.1.15,2013-09-06 19:01:00,
2013-09-06 15:02:00,73.1,59.3,30.24,SSE,153,1.0,4.0,62,0.00,,,0.00,Wunderground v.1.15,2013-09-06 19:02:00,
2013-09-06 15:03:00,73.0,58.8,30.24,SSE,158,3.0,4.0,61,0.00,,,0.00,Wunderground v.1.15,2013-09-06 19:03:00,
2013-09-06 15:04:00,73.0,59.2,30.24,East,80,2.0,4.0,62,0.00,,,0.00,Wunderground v.1.15,2013-09-06 19:04:00,
2013-09-06 15:07:00,72.9,59.6,30.24,SE,146,2.0,6.0,63,0.00,,,0.00,Wunderground v.1.15,2013-09-06 19:07:00,
2013-09-06 15:08:00,72.9,59.1,30.24,South,175,1.0,6.0,62,0.00,,,0.00,Wunderground v.1.15,2013-09-06 19:08:00,
2013-09-06 15:09:00,72.9,59.1,30.24,East,87,3.0,6.0,62,0.00,,,0.00,Wunderground v.1.15,2013-09-06 19:09:00,
2013-09-06 15:12:00,73.1,59.8,30.24,SSE,147,4.0,5.0,63,0.00,,,0.00,Wunderground v.1.15,2013-09-06 19:12:00,
2013-09-06 15:14:00,73.3,59.5,30.24,SE,141,1.0,5.0,62,0.00,,,0.00,Wunderground v.1.15,2013-09-06 19:14:00,
2013-09-06 15:17:00,73.6,59.3,30.24,NW,323,0.0,7.0,61,0.00,,,0.00,Wunderground v.1.15,2013-09-06 19:17:00,
2013-09-06 15:18:00,73.7,59.4,30.24,NW,323,0.0,7.0,61,0.00,,,0.00,Wunderground v.1.15,2013-09-06 19:18:00,
2013-09-06 15:19:00,73.7,59.4,30.24,ENE,63,1.0,7.0,61,0.00,,,0.00,Wunderground v.1.15,2013-09-06 19:19:00,
2013-09-06 15:22:00,74.0,60.2,30.23,ENE,78,2.0,7.0,62,0.00,,,0.00,Wunderground v.1.15,2013-09-06 19:22:00,
2013-09-06 15:24:00,74.1,60.2,30.24,East,92,1.0,7.0,62,0.00,,,0.00,Wunderground v.1.15,2013-09-06 19:24:00,
2013-09-06 15:25:00,74.1,59.8,30.24,ESE,123,2.0,7.0,61,0.00,,,0.00,Wunderground v.1.15,2013-09-06 19:25:00,
2013-09-06 15:26:00,74.0,59.7,30.24,South,175,3.0,7.0,61,0.00,,,0.00,Wunderground v.1.15,2013-09-06 19:26:00,
2013-09-06 15:27:00,74.0,59.7,30.23,South,174,4.0,7.0,61,0.00,,,0.00,Wunderground v.1.15,2013-09-06 19:27:00,
2013-09-06 15:29:00,74.0,59.2,30.23,ENE,59,3.0,7.0,60,0.00,,,0.00,Wunderground v.1.15,2013-09-06 19:29:00,
2013-09-06 15:30:00,74.1,59.8,30.23,NE,45,4.0,4.0,61,0.00,,,0.00,Wunderground v.1.15,2013-09-06 19:30:00,
2013-09-06 15:31:00,74.1,59.8,30.23,NE,52,0.0,5.0,61,0.00,,,0.00,Wunderground v.1.15,2013-09-06 19:31:00,
2013-09-06 15:33:00,74.3,59.5,30.23,NE,46,1.0,5.0,60,0.00,,,0.00,Wunderground v.1.15,2013-09-06 19:33:00,
2013-09-06 15:34:00,74.4,59.6,30.23,SE,134,3.0,6.0,60,0.00,,,0.00,Wunderground v.1.15,2013-09-06 19:34:00,
2013-09-06 15:35:00,74.5,60.6,30.23,SE,134,1.0,6.0,62,0.00,,,0.00,Wunderground v.1.15,2013-09-06 19:35:00,
2013-09-06 15:36:00,74.5,60.2,30.23,SSE,156,3.0,6.0,61,0.00,,,0.00,Wunderground v.1.15,2013-09-06 19:36:00,
2013-09-06 15:38:00,74.5,60.6,30.23,SSE,161,4.0,8.0,62,0.00,,,0.00,Wunderground v.1.15,2013-09-06 19:38:00,
2013-09-06 15:39:00,74.5,60.6,30.23,SSE,147,2.0,8.0,62,0.00,,,0.00,Wunderground v.1.15,2013-09-06 19:39:00,
2013-09-06 15:40:00,74.4,60.5,30.23,SSE,162,3.0,3.0,62,0.00,,,0.00,Wunderground v.1.15,2013-09-06 19:40:00,
2013-09-06 15:41:00,74.3,60.4,30.23,SSE,161,2.0,4.0,62,0.00,,,0.00,Wunderground v.1.15,2013-09-06 19:41:00,
2013-09-06 15:43:00,74.2,60.3,30.23,WSW,247,3.0,5.0,62,0.00,,,0.00,Wunderground v.1.15,2013-09-06 19:43:00,
2013-09-06 15:44:00,74.0,59.7,30.23,NW,310,1.0,5.0,61,0.00,,,0.00,Wunderground v.1.15,2013-09-06 19:44:00,
2013-09-06 15:46:00,73.9,60.1,30.23,West,274,2.0,5.0,62,0.00,,,0.00,Wunderground v.1.15,2013-09-06 19:46:00,
2013-09-06 15:47:00,73.6,59.8,30.23,East,92,8.0,8.0,62,0.00,,,0.00,Wunderground v.1.15,2013-09-06 19:47:00,
2013-09-06 15:48:00,73.4,59.6,30.23,East,89,1.0,8.0,62,0.00,,,0.00,Wunderground v.1.15,2013-09-06 19:48:00,
2013-09-06 15:49:00,73.3,59.9,30.23,ESE,111,3.0,8.0,63,0.00,,,0.00,Wunderground v.1.15,2013-09-06 19:49:00,
2013-09-06 15:50:00,73.3,59.5,30.23,ESE,119,0.0,3.0,62,0.00,,,0.00,Wunderground v.1.15,2013-09-06 19:50:00,
2013-09-06 15:51:00,73.3,60.4,30.23,SE,124,0.0,3.0,64,0.00,,,0.00,Wunderground v.1.15,2013-09-06 19:51:00,
2013-09-06 15:52:00,73.4,60.0,30.23,ESE,103,1.0,4.0,63,0.00,,,0.00,Wunderground v.1.15,2013-09-06 19:52:00,
2013-09-06 15:53:00,73.4,60.0,30.23,South,173,6.0,6.0,63,0.00,,,0.00,Wunderground v.1.15,2013-09-06 19:53:00,
2013-09-06 15:55:00,73.5,60.1,30.23,South,179,5.0,8.0,63,0.00,,,0.00,Wunderground v.1.15,2013-09-06 19:55:00,
2013-09-06 15:56:00,73.6,60.7,30.23,SE,146,2.0,8.0,64,0.00,,,0.00,Wunderground v.1.15,2013-09-06 19:56:00,
2013-09-06 15:58:00,73.7,60.8,30.22,East,89,5.0,8.0,64,0.00,,,0.00,Wunderground v.1.15,2013-09-06 19:58:00,
2013-09-06 16:00:00,73.8,60.9,30.23,South,173,4.0,4.0,64,0.00,,,0.00,Wunderground v.1.15,2013-09-06 20:00:00,
2013-09-06 16:01:00,73.8,60.9,30.22,SE,140,4.0,5.0,64,0.00,,,0.00,Wunderground v.1.15,2013-09-06 20:01:00,
2013-09-06 16:02:00,73.7,60.8,30.22,SE,142,9.0,9.0,64,0.00,,,0.00,Wunderground v.1.15,2013-09-06 20:02:00,
2013-09-06 16:04:00,73.6,60.2,30.22,East,100,1.0,9.0,63,0.00,,,0.00,Wunderground v.1.15,2013-09-06 20:04:00,
2013-09-06 16:05:00,73.5,60.6,30.22,SSE,157,4.0,9.0,64,0.00,,,0.00,Wunderground v.1.15,2013-09-06 20:05:00,
2013-09-06 16:06:00,73.4,60.5,30.22,SSE,152,2.0,9.0,64,0.00,,,0.00,Wunderground v.1.15,2013-09-06 20:06:00,
2013-09-06 16:09:00,73.2,60.7,30.23,SSE,168,5.0,9.0,65,0.00,,,0.00,Wunderground v.1.15,2013-09-06 20:09:00,
2013-09-06 16:10:00,73.2,61.2,30.22,ENE,67,3.0,5.0,66,0.00,,,0.00,Wunderground v.1.15,2013-09-06 20:10:00,
2013-09-06 16:12:00,73.3,61.3,30.22,East,97,2.0,5.0,66,0.00,,,0.00,Wunderground v.1.15,2013-09-06 20:12:00,
2013-09-06 16:14:00,73.6,60.7,30.22,SSE,159,6.0,6.0,64,0.00,,,0.00,Wunderground v.1.15,2013-09-06 20:14:00,
2013-09-06 16:16:00,73.9,61.0,30.22,ESE,114,0.0,6.0,64,0.00,,,0.00,Wunderground v.1.15,2013-09-06 20:16:00,
2013-09-06 16:17:00,74.0,61.0,30.23,ESE,102,4.0,6.0,64,0.00,,,0.00,Wunderground v.1.15,2013-09-06 20:17:00,
2013-09-06 16:18:00,74.2,61.2,30.23,East,97,3.0,6.0,64,0.00,,,0.00,Wunderground v.1.15,2013-09-06 20:18:00,
2013-09-06 16:19:00,74.4,61.4,30.23,East,96,2.0,6.0,64,0.00,,,0.00,Wunderground v.1.15,2013-09-06 20:19:00,
2013-09-06 16:22:00,74.8,60.9,30.23,East,81,6.0,6.0,62,0.00,,,0.00,Wunderground v.1.15,2013-09-06 20:22:00,
2013-09-06 16:24:00,75.1,61.6,30.22,NNE,20,4.0,8.0,63,0.00,,,0.00,Wunderground v.1.15,2013-09-06 20:24:00,
2013-09-06 16:26:00,75.1,60.7,30.23,NE,39,4.0,8.0,61,0.00,,,0.00,Wunderground v.1.15,2013-09-06 20:26:00,
2013-09-06 16:27:00,75.1,60.7,30.23,East,84,3.0,10.0,61,0.00,,,0.00,Wunderground v.1.15,2013-09-06 20:27:00,
2013-09-06 16:29:00,74.7,61.3,30.23,SE,143,4.0,10.0,63,0.00,,,0.00,Wunderground v.1.15,2013-09-06 20:29:00,
2013-09-06 16:30:00,74.6,60.7,30.23,SSE,154,3.0,4.0,62,0.00,,,0.00,Wunderground v.1.15,2013-09-06 20:30:00,
2013-09-06 16:32:00,74.4,60.5,30.22,East,86,5.0,7.0,62,0.00,,,0.00,Wunderground v.1.15,2013-09-06 20:32:00,
2013-09-06 16:35:00,74.1,61.1,30.22,ESE,115,4.0,7.0,64,0.00,,,0.00,Wunderground v.1.15,2013-09-06 20:35:00,
2013-09-06 16:37:00,73.9,60.5,30.22,ESE,115,2.0,7.0,63,0.00,,,0.00,Wunderground v.1.15,2013-09-06 20:37:00,
2013-09-06 16:38:00,73.9,60.5,30.22,ESE,115,2.0,7.0,63,0.00,,,0.00,Wunderground v.1.15,2013-09-06 20:38:00,
2013-09-06 16:40:00,73.8,60.4,30.22,East,93,1.0,4.0,63,0.00,,,0.00,Wunderground v.1.15,2013-09-06 20:40:00,
2013-09-06 16:41:00,73.8,60.9,30.22,East,89,0.0,4.0,64,0.00,,,0.00,Wunderground v.1.15,2013-09-06 20:41:00,
2013-09-06 16:42:00,73.8,61.3,30.22,ESE,103,0.0,4.0,65,0.00,,,0.00,Wunderground v.1.15,2013-09-06 20:42:00,
2013-09-06 16:43:00,73.8,61.3,30.22,East,94,1.0,4.0,65,0.00,,,0.00,Wunderground v.1.15,2013-09-06 20:43:00,
2013-09-06 16:45:00,73.9,61.0,30.22,SSE,167,2.0,4.0,64,0.00,,,0.00,Wunderground v.1.15,2013-09-06 20:45:00,
2013-09-06 16:46:00,73.9,61.0,30.22,SE,143,1.0,5.0,64,0.00,,,0.00,Wunderground v.1.15,2013-09-06 20:46:00,
2013-09-06 16:48:00,73.9,61.0,30.22,NE,49,3.0,7.0,64,0.00,,,0.00,Wunderground v.1.15,2013-09-06 20:48:00,
2013-09-06 16:49:00,73.9,61.4,30.22,East,82,2.0,7.0,65,0.00,,,0.00,Wunderground v.1.15,2013-09-06 20:49:00,
2013-09-06 16:50:00,73.8,60.9,30.22,East,86,3.0,3.0,64,0.00,,,0.00,Wunderground v.1.15,2013-09-06 20:50:00,
2013-09-06 16:53:00,73.6,60.2,30.22,ESE,103,1.0,8.0,63,0.00,,,0.00,Wunderground v.1.15,2013-09-06 20:53:00,
2013-09-06 16:54:00,73.5,60.1,30.22,East,101,1.0,8.0,63,0.00,,,0.00,Wunderground v.1.15,2013-09-06 20:54:00,
2013-09-06 16:55:00,73.4,60.5,30.22,SSE,155,1.0,8.0,64,0.00,,,0.00,Wunderground v.1.15,2013-09-06 20:55:00,
2013-09-06 16:58:00,73.4,60.5,30.22,SSE,163,0.0,8.0,64,0.00,,,0.00,Wunderground v.1.15,2013-09-06 20:58:00,
2013-09-06 16:59:00,73.4,60.5,30.22,East,100,2.0,8.0,64,0.00,,,0.00,Wunderground v.1.15,2013-09-06 20:59:00,
2013-09-06 17:00:00,73.3,60.4,30.22,ENE,72,3.0,3.0,64,0.00,,,0.00,Wunderground v.1.15,2013-09-06 21:00:00,
2013-09-06 17:01:00,73.3,60.8,30.22,East,83,5.0,6.0,65,0.00,,,0.00,Wunderground v.1.15,2013-09-06 21:01:00,
2013-09-06 17:03:00,73.2,60.7,30.22,ESE,113,4.0,6.0,65,0.00,,,0.00,Wunderground v.1.15,2013-09-06 21:03:00,
2013-09-06 17:04:00,73.1,60.6,30.22,South,169,8.0,8.0,65,0.00,,,0.00,Wunderground v.1.15,2013-09-06 21:04:00,
2013-09-06 17:05:00,73.1,60.6,30.22,SSE,150,5.0,12.0,65,0.00,,,0.00,Wunderground v.1.15,2013-09-06 21:05:00,
2013-09-06 17:06:00,73.1,60.2,30.22,ESE,114,4.0,12.0,64,0.00,,,0.00,Wunderground v.1.15,2013-09-06 21:06:00,
2013-09-06 17:07:00,72.9,60.4,30.22,East,89,7.0,12.0,65,0.00,,,0.00,Wunderground v.1.15,2013-09-06 21:07:00,
2013-09-06 17:09:00,72.8,60.3,30.22,SE,140,3.0,12.0,65,0.00,,,0.00,Wunderground v.1.15,2013-09-06 21:09:00,
2013-09-06 17:10:00,72.7,60.3,30.22,East,101,0.0,4.0,65,0.00,,,0.00,Wunderground v.1.15,2013-09-06 21:10:00,
2013-09-06 17:11:00,72.6,60.2,30.22,ENE,77,2.0,4.0,65,0.00,,,0.00,Wunderground v.1.15,2013-09-06 21:11:00,
2013-09-06 17:13:00,72.6,60.2,30.22,East,79,2.0,5.0,65,0.00,,,0.00,Wunderground v.1.15,2013-09-06 21:13:00,
2013-09-06 17:14:00,72.6,60.2,30.22,ESE,107,3.0,5.0,65,0.00,,,0.00,Wunderground v.1.15,2013-09-06 21:14:00,
2013-09-06 17:16:00,72.7,60.3,30.22,ESE,119,3.0,7.0,65,0.00,,,0.00,Wunderground v.1.15,2013-09-06 21:16:00,
2013-09-06 17:17:00,72.6,60.2,30.22,South,177,2.0,7.0,65,0.00,,,0.00,Wunderground v.1.15,2013-09-06 21:17:00,
2013-09-06 17:18:00,72.7,60.7,30.22,ESE,105,1.0,7.0,66,0.00,,,0.00,Wunderground v.1.15,2013-09-06 21:18:00,
2013-09-06 17:19:00,72.7,60.7,30.22,ENE,67,0.0,7.0,66,0.00,,,0.00,Wunderground v.1.15,2013-09-06 21:19:00,
2013-09-06 17:20:00,72.8,60.8,30.22,East,86,2.0,3.0,66,0.00,,,0.00,Wunderground v.1.15,2013-09-06 21:20:00,
2013-09-06 17:21:00,72.9,60.4,30.22,East,93,2.0,8.0,65,0.00,,,0.00,Wunderground v.1.15,2013-09-06 21:21:00,
2013-09-06 17:22:00,73.0,60.5,30.22,SSE,150,2.0,8.0,65,0.00,,,0.00,Wunderground v.1.15,2013-09-06 21:22:00,
2013-09-06 17:24:00,73.1,60.6,30.22,East,84,6.0,8.0,65,0.00,,,0.00,Wunderground v.1.15,2013-09-06 21:24:00,
2013-09-06 17:25:00,73.0,60.5,30.22,SSW,198,5.0,8.0,65,0.00,,,0.00,Wunderground v.1.15,2013-09-06 21:25:00,
2013-09-06 17:26:00,72.9,60.4,30.22,SSE,154,3.0,8.0,65,0.00,,,0.00,Wunderground v.1.15,2013-09-06 21:26:00,
2013-09-06 17:28:00,72.7,60.3,30.22,ENE,71,2.0,8.0,65,0.00,,,0.00,Wunderground v.1.15,2013-09-06 21:28:00,
2013-09-06 17:29:00,72.6,60.2,30.22,ENE,65,4.0,8.0,65,0.00,,,0.00,Wunderground v.1.15,2013-09-06 21:29:00,
2013-09-06 17:31:00,72.5,60.1,30.22,East,101,5.0,5.0,65,0.00,,,0.00,Wunderground v.1.15,2013-09-06 21:31:00,
2013-09-06 17:32:00,72.4,60.0,30.22,South,175,2.0,5.0,65,0.00,,,0.00,Wunderground v.1.15,2013-09-06 21:32:00,
2013-09-06 17:34:00,72.1,60.1,30.22,South,169,6.0,9.0,66,0.00,,,0.00,Wunderground v.1.15,2013-09-06 21:34:00,
2013-09-06 17:36:00,71.8,59.8,30.22,SSE,149,6.0,9.0,66,0.00,,,0.00,Wunderground v.1.15,2013-09-06 21:36:00,
2013-09-06 17:38:00,71.7,59.7,30.22,East,80,2.0,9.0,66,0.00,,,0.00,Wunderground v.1.15,2013-09-06 21:38:00,
2013-09-06 17:39:00,71.7,60.2,30.22,SSE,148,1.0,9.0,67,0.00,,,0.00,Wunderground v.1.15,2013-09-06 21:39:00,
2013-09-06 17:40:00,71.7,60.2,30.22,ESE,115,0.0,4.0,67,0.00,,,0.00,Wunderground v.1.15,2013-09-06 21:40:00,
2013-09-06 17:41:00,71.7,60.6,30.22,SE,145,4.0,4.0,68,0.00,,,0.00,Wunderground v.1.15,2013-09-06 21:41:00,
2013-09-06 17:44:00,71.8,59.8,30.22,SSE,161,0.0,6.0,66,0.00,,,0.00,Wunderground v.1.15,2013-09-06 21:44:00,
2013-09-06 17:45:00,71.9,60.3,30.22,SE,138,0.0,6.0,67,0.00,,,0.00,Wunderground v.1.15,2013-09-06 21:45:00,
2013-09-06 17:46:00,71.9,60.3,30.22,East,93,0.0,6.0,67,0.00,,,0.00,Wunderground v.1.15,2013-09-06 21:46:00,
2013-09-06 17:47:00,71.9,60.3,30.22,ESE,104,3.0,6.0,67,0.00,,,0.00,Wunderground v.1.15,2013-09-06 21:47:00,
2013-09-06 17:49:00,71.8,59.8,30.22,South,182,5.0,9.0,66,0.00,,,0.00,Wunderground v.1.15,2013-09-06 21:49:00,
2013-09-06 17:50:00,71.8,59.8,30.22,SE,143,1.0,6.0,66,0.00,,,0.00,Wunderground v.1.15,2013-09-06 21:50:00,
2013-09-06 17:51:00,71.8,59.8,30.22,SSE,147,1.0,6.0,66,0.00,,,0.00,Wunderground v.1.15,2013-09-06 21:51:00,
2013-09-06 17:52:00,71.8,60.2,30.22,NE,51,3.0,6.0,67,0.00,,,0.00,Wunderground v.1.15,2013-09-06 21:52:00,
2013-09-06 17:55:00,71.8,60.2,30.22,East,82,6.0,7.0,67,0.00,,,0.00,Wunderground v.1.15,2013-09-06 21:55:00,
2013-09-06 17:56:00,71.8,59.8,30.22,East,97,6.0,7.0,66,0.00,,,0.00,Wunderground v.1.15,2013-09-06 21:56:00,
2013-09-06 17:57:00,71.8,59.8,30.22,SE,141,1.0,7.0,66,0.00,,,0.00,Wunderground v.1.15,2013-09-06 21:57:00,
2013-09-06 17:58:00,71.7,59.7,30.22,ENE,65,2.0,7.0,66,0.00,,,0.00,Wunderground v.1.15,2013-09-06 21:58:00,
2013-09-06 18:01:00,71.6,59.6,30.22,ESE,111,3.0,5.0,66,0.00,,,0.00,Wunderground v.1.15,2013-09-06 22:01:00,
2013-09-06 18:02:00,71.6,59.6,30.22,ESE,114,3.0,5.0,66,0.00,,,0.00,Wunderground v.1.15,2013-09-06 22:02:00,
2013-09-06 18:04:00,71.4,59.9,30.22,NE,46,3.0,7.0,67,0.00,,,0.00,Wunderground v.1.15,2013-09-06 22:04:00,
2013-09-06 18:06:00,71.1,59.6,30.22,SE,130,1.0,9.0,67,0.00,,,0.00,Wunderground v.1.15,2013-09-06 22:06:00,
2013-09-06 18:07:00,71.0,59.5,30.22,ESE,121,0.0,9.0,67,0.00,,,0.00,Wunderground v.1.15,2013-09-06 22:07:00,
2013-09-06 18:10:00,70.9,59.8,30.22,ENE,72,5.0,7.0,68,0.00,,,0.00,Wunderground v.1.15,2013-09-06 22:10:00,
2013-09-06 18:11:00,70.9,59.8,30.22,ESE,120,0.0,8.0,68,0.00,,,0.00,Wunderground v.1.15,2013-09-06 22:11:00,
2013-09-06 18:12:00,70.9,59.8,30.22,South,171,1.0,8.0,68,0.00,,,0.00,Wunderground v.1.15,2013-09-06 22:12:00,
2013-09-06 18:13:00,70.8,59.7,30.22,ESE,118,2.0,8.0,68,0.00,,,0.00,Wunderground v.1.15,2013-09-06 22:13:00,
2013-09-06 18:14:00,70.8,59.7,30.22,East,101,6.0,8.0,68,0.00,,,0.00,Wunderground v.1.15,2013-09-06 22:14:00,
2013-09-06 18:16:00,70.8,59.7,30.22,ENE,57,4.0,8.0,68,0.00,,,0.00,Wunderground v.1.15,2013-09-06 22:16:00,
2013-09-06 18:17:00,70.7,59.2,30.22,ENE,57,7.0,8.0,67,0.00,,,0.00,Wunderground v.1.15,2013-09-06 22:17:00,
2013-09-06 18:18:00,70.6,59.1,30.22,ENE,68,5.0,8.0,67,0.00,,,0.00,Wunderground v.1.15,2013-09-06 22:18:00,
2013-09-06 18:19:00,70.5,59.4,30.22,East,82,0.0,8.0,68,0.00,,,0.00,Wunderground v.1.15,2013-09-06 22:19:00,
2013-09-06 18:21:00,70.4,59.3,30.22,ESE,113,4.0,4.0,68,0.00,,,0.00,Wunderground v.1.15,2013-09-06 22:21:00,
2013-09-06 18:22:00,70.3,59.2,30.22,ENE,73,2.0,5.0,68,0.00,,,0.00,Wunderground v.1.15,2013-09-06 22:22:00,
2013-09-06 18:23:00,70.3,59.2,30.22,SE,132,4.0,5.0,68,0.00,,,0.00,Wunderground v.1.15,2013-09-06 22:23:00,
2013-09-06 18:25:00,70.2,59.6,30.22,East,101,2.0,5.0,69,0.00,,,0.00,Wunderground v.1.15,2013-09-06 22:25:00,
2013-09-06 18:26:00,70.2,59.6,30.22,East,94,5.0,9.0,69,0.00,,,0.00,Wunderground v.1.15,2013-09-06 22:26:00,
2013-09-06 18:27:00,70.2,59.6,30.22,East,98,1.0,9.0,69,0.00,,,0.00,Wunderground v.1.15,2013-09-06 22:27:00,
2013-09-06 18:28:00,70.2,59.6,30.22,ESE,112,1.0,9.0,69,0.00,,,0.00,Wunderground v.1.15,2013-09-06 22:28:00,
2013-09-06 18:30:00,70.0,59.4,30.22,East,79,2.0,5.0,69,0.00,,,0.00,Wunderground v.1.15,2013-09-06 22:30:00,
2013-09-06 18:31:00,69.9,58.9,30.22,SE,130,1.0,5.0,68,0.00,,,0.00,Wunderground v.1.15,2013-09-06 22:31:00,
2013-09-06 18:33:00,69.8,59.2,30.22,East,100,3.0,8.0,69,0.00,,,0.00,Wunderground v.1.15,2013-09-06 22:33:00,
2013-09-06 18:36:00,69.6,59.4,30.22,East,98,3.0,8.0,70,0.00,,,0.00,Wunderground v.1.15,2013-09-06 22:36:00,
2013-09-06 18:38:00,69.5,58.9,30.22,ENE,72,2.0,8.0,69,0.00,,,0.00,Wunderground v.1.15,2013-09-06 22:38:00,
2013-09-06 18:41:00,69.4,58.8,30.22,SSE,159,2.0,5.0,69,0.00,,,0.00,Wunderground v.1.15,2013-09-06 22:41:00,
2013-09-06 18:42:00,69.3,58.7,30.22,ENE,70,7.0,8.0,69,0.00,,,0.00,Wunderground v.1.15,2013-09-06 22:42:00,
2013-09-06 18:43:00,69.2,58.6,30.22,ENE,74,0.0,8.0,69,0.00,,,0.00,Wunderground v.1.15,2013-09-06 22:43:00,
2013-09-06 18:46:00,68.9,58.3,30.22,SSE,153,0.0,8.0,69,0.00,,,0.00,Wunderground v.1.15,2013-09-06 22:46:00,
2013-09-06 18:47:00,68.9,58.3,30.22,SE,135,1.0,8.0,69,0.00,,,0.00,Wunderground v.1.15,2013-09-06 22:47:00,
2013-09-06 18:48:00,68.8,58.6,30.22,ESE,116,2.0,8.0,70,0.00,,,0.00,Wunderground v.1.15,2013-09-06 22:48:00,
2013-09-06 18:49:00,68.8,58.6,30.22,East,85,2.0,8.0,70,0.00,,,0.00,Wunderground v.1.15,2013-09-06 22:49:00,
2013-09-06 18:52:00,68.5,58.7,30.22,ENE,62,3.0,4.0,71,0.00,,,0.00,Wunderground v.1.15,2013-09-06 22:52:00,
2013-09-06 18:54:00,68.4,58.6,30.22,East,92,2.0,5.0,71,0.00,,,0.00,Wunderground v.1.15,2013-09-06 22:54:00,
2013-09-06 18:57:00,68.3,58.5,30.22,ESE,108,1.0,5.0,71,0.00,,,0.00,Wunderground v.1.15,2013-09-06 22:57:00,
2013-09-06 18:58:00,68.3,58.5,30.22,ENE,59,1.0,5.0,71,0.00,,,0.00,Wunderground v.1.15,2013-09-06 22:58:00,
2013-09-06 18:59:00,68.2,58.4,30.22,East,84,0.0,5.0,71,0.00,,,0.00,Wunderground v.1.15,2013-09-06 22:59:00,
2013-09-06 19:02:00,68.1,58.3,30.21,SE,141,1.0,5.0,71,0.00,,,0.00,Wunderground v.1.15,2013-09-06 23:02:00,
2013-09-06 19:03:00,68.0,58.2,30.21,SE,138,0.0,5.0,71,0.00,,,0.00,Wunderground v.1.15,2013-09-06 23:03:00,
2013-09-06 19:04:00,68.0,58.2,30.22,NE,55,2.0,5.0,71,0.00,,,0.00,Wunderground v.1.15,2013-09-06 23:04:00,
2013-09-06 19:05:00,68.0,58.2,30.22,ENE,73,1.0,5.0,71,0.00,,,0.00,Wunderground v.1.15,2013-09-06 23:05:00,
2013-09-06 19:07:00,67.9,58.1,30.21,ESE,110,0.0,5.0,71,0.00,,,0.00,Wunderground v.1.15,2013-09-06 23:07:00,
2013-09-06 19:09:00,67.8,58.4,30.22,ENE,58,0.0,5.0,72,0.00,,,0.00,Wunderground v.1.15,2013-09-06 23:09:00,
2013-09-06 19:11:00,67.7,58.3,30.22,ENE,77,1.0,1.0,72,0.00,,,0.00,Wunderground v.1.15,2013-09-06 23:11:00,
2013-09-06 19:13:00,67.6,58.6,30.22,SE,138,1.0,2.0,73,0.00,,,0.00,Wunderground v.1.15,2013-09-06 23:13:00,
2013-09-06 19:14:00,67.5,58.5,30.22,ESE,120,0.0,2.0,73,0.00,,,0.00,Wunderground v.1.15,2013-09-06 23:14:00,
2013-09-06 19:15:00,67.4,58.4,30.22,ESE,113,1.0,2.0,73,0.00,,,0.00,Wunderground v.1.15,2013-09-06 23:15:00,
2013-09-06 19:16:00,67.3,58.3,30.22,ESE,113,0.0,2.0,73,0.00,,,0.00,Wunderground v.1.15,2013-09-06 23:16:00,
2013-09-06 19:18:00,67.2,58.6,30.22,East,85,0.0,3.0,74,0.00,,,0.00,Wunderground v.1.15,2013-09-06 23:18:00,
2013-09-06 19:19:00,67.2,58.6,30.22,SE,138,1.0,3.0,74,0.00,,,0.00,Wunderground v.1.15,2013-09-06 23:19:00,
2013-09-06 19:20:00,67.1,58.5,30.22,SE,146,0.0,1.0,74,0.00,,,0.00,Wunderground v.1.15,2013-09-06 23:20:00,
2013-09-06 19:21:00,67.1,58.5,30.22,SE,144,0.0,1.0,74,0.00,,,0.00,Wunderground v.1.15,2013-09-06 23:21:00,
2013-09-06 19:23:00,67.0,58.4,30.22,ESE,121,2.0,2.0,74,0.00,,,0.00,Wunderground v.1.15,2013-09-06 23:23:00,
2013-09-06 19:24:00,66.9,58.3,30.22,ESE,111,1.0,3.0,74,0.00,,,0.00,Wunderground v.1.15,2013-09-06 23:24:00,
2013-09-06 19:25:00,66.9,58.3,30.22,ESE,111,0.0,3.0,74,0.00,,,0.00,Wunderground v.1.15,2013-09-06 23:25:00,
2013-09-06 19:26:00,66.8,58.2,30.22,ESE,107,0.0,3.0,74,0.00,,,0.00,Wunderground v.1.15,2013-09-06 23:26:00,
2013-09-06 19:28:00,66.6,58.1,30.22,SSE,150,0.0,3.0,74,0.00,,,0.00,Wunderground v.1.15,2013-09-06 23:28:00,
2013-09-06 19:30:00,66.5,58.3,30.22,SE,136,0.0,1.0,75,0.00,,,0.00,Wunderground v.1.15,2013-09-06 23:30:00,
2013-09-06 19:31:00,66.4,58.2,30.22,East,93,0.0,2.0,75,0.00,,,0.00,Wunderground v.1.15,2013-09-06 23:31:00,
2013-09-06 19:32:00,66.4,58.2,30.22,East,93,0.0,2.0,75,0.00,,,0.00,Wunderground v.1.15,2013-09-06 23:32:00,
2013-09-06 19:33:00,66.3,58.1,30.22,East,84,0.0,2.0,75,0.00,,,0.00,Wunderground v.1.15,2013-09-06 23:33:00,
2013-09-06 19:35:00,66.2,58.0,30.22,SE,126,0.0,2.0,75,0.00,,,0.00,Wunderground v.1.15,2013-09-06 23:35:00,
2013-09-06 19:36:00,66.2,58.0,30.22,SE,128,0.0,2.0,75,0.00,,,0.00,Wunderground v.1.15,2013-09-06 23:36:00,
2013-09-06 19:37:00,66.2,58.0,30.22,SE,132,0.0,2.0,75,0.00,,,0.00,Wunderground v.1.15,2013-09-06 23:37:00,
2013-09-06 19:38:00,66.1,57.9,30.22,SSE,155,1.0,2.0,75,0.00,,,0.00,Wunderground v.1.15,2013-09-06 23:38:00,
2013-09-06 19:40:00,66.0,57.8,30.22,ESE,115,1.0,1.0,75,0.00,,,0.00,Wunderground v.1.15,2013-09-06 23:40:00,
2013-09-06 19:41:00,65.8,58.0,30.22,ESE,112,0.0,2.0,76,0.00,,,0.00,Wunderground v.1.15,2013-09-06 23:41:00,
2013-09-06 19:42:00,65.7,57.9,30.22,ESE,112,0.0,2.0,76,0.00,,,0.00,Wunderground v.1.15,2013-09-06 23:42:00,
2013-09-06 19:43:00,65.6,57.8,30.22,SSE,161,0.0,2.0,76,0.00,,,0.00,Wunderground v.1.15,2013-09-06 23:43:00,
2013-09-06 19:45:00,65.5,57.7,30.22,East,89,0.0,2.0,76,0.00,,,0.00,Wunderground v.1.15,2013-09-06 23:45:00,
2013-09-06 19:46:00,65.4,57.6,30.22,ESE,113,1.0,2.0,76,0.00,,,0.00,Wunderground v.1.15,2013-09-06 23:46:00,
2013-09-06 19:47:00,65.4,57.6,30.22,ESE,109,1.0,2.0,76,0.00,,,0.00,Wunderground v.1.15,2013-09-06 23:47:00,
2013-09-06 19:48:00,65.3,57.5,30.22,ESE,113,1.0,3.0,76,0.00,,,0.00,Wunderground v.1.15,2013-09-06 23:48:00,
2013-09-06 19:49:00,65.3,57.5,30.22,ESE,113,0.0,3.0,76,0.00,,,0.00,Wunderground v.1.15,2013-09-06 23:49:00,
2013-09-06 19:50:00,65.2,57.4,30.22,ESE,113,0.0,0.0,76,0.00,,,0.00,Wunderground v.1.15,2013-09-06 23:50:00,
2013-09-06 19:51:00,65.2,57.4,30.22,ESE,113,0.0,0.0,76,0.00,,,0.00,Wunderground v.1.15,2013-09-06 23:51:00,
2013-09-06 19:54:00,65.1,57.3,30.22,ESE,115,0.0,1.0,76,0.00,,,0.00,Wunderground v.1.15,2013-09-06 23:54:00,
2013-09-06 19:55:00,65.0,57.2,30.22,ESE,115,0.0,1.0,76,0.00,,,0.00,Wunderground v.1.15,2013-09-06 23:55:00,
2013-09-06 19:56:00,65.0,57.2,30.22,ESE,115,0.0,1.0,76,0.00,,,0.00,Wunderground v.1.15,2013-09-06 23:56:00,
2013-09-06 19:57:00,64.9,57.5,30.22,ESE,112,1.0,2.0,77,0.00,,,0.00,Wunderground v.1.15,2013-09-06 23:57:00,
2013-09-06 19:59:00,64.8,57.4,30.22,ESE,111,0.0,2.0,77,0.00,,,0.00,Wunderground v.1.15,2013-09-06 23:59:00,
2013-09-06 20:00:00,64.8,57.4,30.22,ESE,121,0.0,1.0,77,0.00,,,0.00,Wunderground v.1.15,2013-09-07 00:00:00,
2013-09-06 20:01:00,64.7,57.3,30.22,ESE,121,0.0,1.0,77,0.00,,,0.00,Wunderground v.1.15,2013-09-07 00:01:00,
2013-09-06 20:03:00,64.6,57.2,30.22,ESE,121,0.0,1.0,77,0.00,,,0.00,Wunderground v.1.15,2013-09-07 00:03:00,
2013-09-06 20:04:00,64.5,57.1,30.22,ESE,119,0.0,2.0,77,0.00,,,0.00,Wunderground v.1.15,2013-09-07 00:04:00,
2013-09-06 20:06:00,64.5,57.1,30.22,ESE,119,0.0,2.0,77,0.00,,,0.00,Wunderground v.1.15,2013-09-07 00:06:00,
2013-09-06 20:08:00,64.4,57.4,30.22,ESE,119,0.0,2.0,78,0.00,,,0.00,Wunderground v.1.15,2013-09-07 00:08:00,
2013-09-06 20:09:00,64.3,57.3,30.22,ESE,119,0.0,2.0,78,0.00,,,0.00,Wunderground v.1.15,2013-09-07 00:09:00,
2013-09-06 20:10:00,64.3,57.3,30.22,ESE,119,0.0,0.0,78,0.00,,,0.00,Wunderground v.1.15,2013-09-07 00:10:00,
2013-09-06 20:11:00,64.2,57.2,30.22,ESE,119,0.0,0.0,78,0.00,,,0.00,Wunderground v.1.15,2013-09-07 00:11:00,
2013-09-06 20:13:00,64.1,57.1,30.22,SSE,151,0.0,2.0,78,0.00,,,0.00,Wunderground v.1.15,2013-09-07 00:13:00,
2013-09-06 20:14:00,64.1,57.1,30.22,SSE,150,0.0,2.0,78,0.00,,,0.00,Wunderground v.1.15,2013-09-07 00:14:00,
2013-09-06 20:16:00,64.0,57.4,30.22,SSE,150,0.0,2.0,79,0.00,,,0.00,Wunderground v.1.15,2013-09-07 00:16:00,
2013-09-06 20:17:00,64.0,57.4,30.22,SSE,150,0.0,2.0,79,0.00,,,0.00,Wunderground v.1.15,2013-09-07 00:17:00,
2013-09-06 20:18:00,63.9,57.3,30.22,SSE,150,0.0,2.0,79,0.00,,,0.00,Wunderground v.1.15,2013-09-07 00:18:00,
2013-09-06 20:19:00,63.9,57.3,30.22,SSE,150,0.0,2.0,79,0.00,,,0.00,Wunderground v.1.15,2013-09-07 00:19:00,
2013-09-06 20:21:00,63.8,57.5,30.22,SSE,159,0.0,1.0,80,0.00,,,0.00,Wunderground v.1.15,2013-09-07 00:21:00,
2013-09-06 20:22:00,63.8,57.5,30.22,SSE,159,0.0,1.0,80,0.00,,,0.00,Wunderground v.1.15,2013-09-07 00:22:00,
2013-09-06 20:24:00,63.8,57.5,30.22,SSE,159,0.0,1.0,80,0.00,,,0.00,Wunderground v.1.15,2013-09-07 00:24:00,
2013-09-06 20:25:00,63.7,57.4,30.22,SSE,159,0.0,1.0,80,0.00,,,0.00,Wunderground v.1.15,2013-09-07 00:25:00,
2013-09-06 20:26:00,63.6,57.3,30.23,SSE,159,0.0,1.0,80,0.00,,,0.00,Wunderground v.1.15,2013-09-07 00:26:00,
2013-09-06 20:28:00,63.5,57.6,30.23,SSE,159,0.0,1.0,81,0.00,,,0.00,Wunderground v.1.15,2013-09-07 00:28:00,
2013-09-06 20:29:00,63.5,57.6,30.23,SSE,159,0.0,1.0,81,0.00,,,0.00,Wunderground v.1.15,2013-09-07 00:29:00,
2013-09-06 20:30:00,63.5,57.6,30.23,SSE,159,0.0,0.0,81,0.00,,,0.00,Wunderground v.1.15,2013-09-07 00:30:00,
2013-09-06 20:31:00,63.4,57.5,30.23,SSE,159,0.0,0.0,81,0.00,,,0.00,Wunderground v.1.15,2013-09-07 00:31:00,
2013-09-06 20:33:00,63.3,57.4,30.23,SSE,155,1.0,1.0,81,0.00,,,0.00,Wunderground v.1.15,2013-09-07 00:33:00,
2013-09-06 20:34:00,63.2,57.3,30.23,SSE,155,0.0,1.0,81,0.00,,,0.00,Wunderground v.1.15,2013-09-07 00:34:00,
2013-09-06 20:35:00,63.2,56.9,30.23,SSE,155,0.0,1.0,80,0.00,,,0.00,Wunderground v.1.15,2013-09-07 00:35:00,
2013-09-06 20:36:00,63.1,56.8,30.23,SSE,155,0.0,1.0,80,0.00,,,0.00,Wunderground v.1.15,2013-09-07 00:36:00,
2013-09-06 20:37:00,63.1,57.2,30.22,SSE,155,0.0,1.0,81,0.00,,,0.00,Wunderground v.1.15,2013-09-07 00:37:00,
2013-09-06 20:38:00,63.0,57.1,30.23,SSE,155,0.0,1.0,81,0.00,,,0.00,Wunderground v.1.15,2013-09-07 00:38:00,
2013-09-06 20:39:00,62.9,57.0,30.23,SSE,155,0.0,1.0,81,0.00,,,0.00,Wunderground v.1.15,2013-09-07 00:39:00,
2013-09-06 20:40:00,62.9,57.0,30.23,SSE,155,0.0,0.0,81,0.00,,,0.00,Wunderground v.1.15,2013-09-07 00:40:00,
2013-09-06 20:42:00,62.8,56.9,30.23,SSE,155,0.0,1.0,81,0.00,,,0.00,Wunderground v.1.15,2013-09-07 00:42:00,
2013-09-06 20:45:00,62.7,57.1,30.23,SSE,155,0.0,1.0,82,0.00,,,0.00,Wunderground v.1.15,2013-09-07 00:45:00,
2013-09-06 20:47:00,62.6,57.0,30.23,SSE,155,0.0,1.0,82,0.00,,,0.00,Wunderground v.1.15,2013-09-07 00:47:00,
2013-09-06 20:50:00,62.5,56.9,30.23,SSE,155,0.0,0.0,82,0.00,,,0.00,Wunderground v.1.15,2013-09-07 00:50:00,
2013-09-06 20:51:00,62.4,56.8,30.23,SSE,155,0.0,0.0,82,0.00,,,0.00,Wunderground v.1.15,2013-09-07 00:51:00,
2013-09-06 20:52:00,62.4,56.8,30.23,SSE,155,0.0,0.0,82,0.00,,,0.00,Wunderground v.1.15,2013-09-07 00:52:00,
2013-09-06 20:55:00,62.3,57.1,30.23,SSE,155,0.0,0.0,83,0.00,,,0.00,Wunderground v.1.15,2013-09-07 00:55:00,
2013-09-06 20:56:00,62.3,57.1,30.23,SSE,155,0.0,0.0,83,0.00,,,0.00,Wunderground v.1.15,2013-09-07 00:56:00,
2013-09-06 20:57:00,62.2,57.0,30.23,SSE,155,0.0,0.0,83,0.00,,,0.00,Wunderground v.1.15,2013-09-07 00:57:00,
2013-09-06 20:58:00,62.2,57.0,30.23,SSE,155,0.0,0.0,83,0.00,,,0.00,Wunderground v.1.15,2013-09-07 00:58:00,
2013-09-06 21:00:00,62.0,57.1,30.23,SSE,155,0.0,0.0,84,0.00,,,0.00,Wunderground v.1.15,2013-09-07 01:00:00,
2013-09-06 21:02:00,61.9,57.0,30.23,SSE,155,0.0,0.0,84,0.00,,,0.00,Wunderground v.1.15,2013-09-07 01:02:00,
2013-09-06 21:03:00,61.8,56.9,30.23,SSE,155,0.0,0.0,84,0.00,,,0.00,Wunderground v.1.15,2013-09-07 01:03:00,
2013-09-06 21:04:00,61.7,56.8,30.23,SSE,155,0.0,0.0,84,0.00,,,0.00,Wunderground v.1.15,2013-09-07 01:04:00,
2013-09-06 21:06:00,61.6,56.7,30.23,SSE,155,0.0,0.0,84,0.00,,,0.00,Wunderground v.1.15,2013-09-07 01:06:00,
2013-09-06 21:08:00,61.5,56.6,30.23,SSE,155,0.0,0.0,84,0.00,,,0.00,Wunderground v.1.15,2013-09-07 01:08:00,
2013-09-06 21:10:00,61.4,56.8,30.23,SSE,155,0.0,0.0,85,0.00,,,0.00,Wunderground v.1.15,2013-09-07 01:10:00,
2013-09-06 21:11:00,61.3,56.8,30.23,SSE,155,0.0,0.0,85,0.00,,,0.00,Wunderground v.1.15,2013-09-07 01:11:00,
2013-09-06 21:13:00,61.2,56.7,30.23,SSE,155,0.0,0.0,85,0.00,,,0.00,Wunderground v.1.15,2013-09-07 01:13:00,
2013-09-06 21:14:00,61.2,56.7,30.23,SSE,155,0.0,0.0,85,0.00,,,0.00,Wunderground v.1.15,2013-09-07 01:14:00,
2013-09-06 21:16:00,61.1,56.6,30.23,SSE,155,0.0,0.0,85,0.00,,,0.00,Wunderground v.1.15,2013-09-07 01:16:00,
2013-09-06 21:17:00,61.0,56.5,30.23,SSE,155,0.0,0.0,85,0.00,,,0.00,Wunderground v.1.15,2013-09-07 01:17:00,
2013-09-06 21:18:00,60.9,56.7,30.23,SSE,155,0.0,0.0,86,0.00,,,0.00,Wunderground v.1.15,2013-09-07 01:18:00,
2013-09-06 21:20:00,60.8,56.6,30.23,SSE,155,0.0,0.0,86,0.00,,,0.00,Wunderground v.1.15,2013-09-07 01:20:00,
2013-09-06 21:21:00,60.8,56.6,30.23,SSE,155,0.0,0.0,86,0.00,,,0.00,Wunderground v.1.15,2013-09-07 01:21:00,
2013-09-06 21:22:00,60.8,56.6,30.23,SSE,155,0.0,0.0,86,0.00,,,0.00,Wunderground v.1.15,2013-09-07 01:22:00,
2013-09-06 21:23:00,60.7,56.5,30.23,SSE,155,0.0,0.0,86,0.00,,,0.00,Wunderground v.1.15,2013-09-07 01:23:00,
2013-09-06 21:24:00,60.7,56.5,30.23,SSE,155,0.0,0.0,86,0.00,,,0.00,Wunderground v.1.15,2013-09-07 01:24:00,
2013-09-06 21:25:00,60.6,56.4,30.23,SSE,155,0.0,1.0,86,0.00,,,0.00,Wunderground v.1.15,2013-09-07 01:25:00,
2013-09-06 21:26:00,60.6,56.4,30.23,SSE,155,0.0,1.0,86,0.00,,,0.00,Wunderground v.1.15,2013-09-07 01:26:00,
2013-09-06 21:27:00,60.6,56.4,30.23,SSE,155,1.0,1.0,86,0.00,,,0.00,Wunderground v.1.15,2013-09-07 01:27:00,
2013-09-06 21:29:00,60.5,56.3,30.23,SSE,155,0.0,1.0,86,0.00,,,0.00,Wunderground v.1.15,2013-09-07 01:29:00,
2013-09-06 21:30:00,60.4,56.2,30.23,SSE,155,0.0,0.0,86,0.00,,,0.00,Wunderground v.1.15,2013-09-07 01:30:00,
2013-09-06 21:31:00,60.3,56.4,30.23,SSE,155,0.0,0.0,87,0.00,,,0.00,Wunderground v.1.15,2013-09-07 01:31:00,
2013-09-06 21:34:00,60.2,56.3,30.23,SSE,155,0.0,0.0,87,0.00,,,0.00,Wunderground v.1.15,2013-09-07 01:34:00,
2013-09-06 21:36:00,60.2,56.3,30.23,SSE,155,0.0,0.0,87,0.00,,,0.00,Wunderground v.1.15,2013-09-07 01:36:00,
2013-09-06 21:37:00,60.1,56.2,30.23,SSE,155,0.0,0.0,87,0.00,,,0.00,Wunderground v.1.15,2013-09-07 01:37:00,
2013-09-06 21:39:00,60.0,56.4,30.23,SSE,158,0.0,1.0,88,0.00,,,0.00,Wunderground v.1.15,2013-09-07 01:39:00,
2013-09-06 21:40:00,60.0,56.4,30.23,SSE,158,0.0,0.0,88,0.00,,,0.00,Wunderground v.1.15,2013-09-07 01:40:00,
2013-09-06 21:41:00,60.0,56.4,30.23,SSE,158,0.0,0.0,88,0.00,,,0.00,Wunderground v.1.15,2013-09-07 01:41:00,
2013-09-06 21:42:00,60.0,56.4,30.23,SSE,158,0.0,0.0,88,0.00,,,0.00,Wunderground v.1.15,2013-09-07 01:42:00,
2013-09-06 21:43:00,59.9,56.3,30.23,SSE,158,0.0,0.0,88,0.00,,,0.00,Wunderground v.1.15,2013-09-07 01:43:00,
2013-09-06 21:45:00,59.9,56.3,30.23,SSE,158,0.0,0.0,88,0.00,,,0.00,Wunderground v.1.15,2013-09-07 01:45:00,
2013-09-06 21:46:00,59.8,56.2,30.23,SSE,158,0.0,0.0,88,0.00,,,0.00,Wunderground v.1.15,2013-09-07 01:46:00,
2013-09-06 21:48:00,59.8,56.2,30.23,SSE,158,0.0,0.0,88,0.00,,,0.00,Wunderground v.1.15,2013-09-07 01:48:00,
2013-09-06 21:50:00,59.7,56.1,30.23,SSE,158,0.0,0.0,88,0.00,,,0.00,Wunderground v.1.15,2013-09-07 01:50:00,
2013-09-06 21:51:00,59.7,56.1,30.23,SSE,158,0.0,0.0,88,0.00,,,0.00,Wunderground v.1.15,2013-09-07 01:51:00,
2013-09-06 21:52:00,59.6,56.0,30.24,SSE,158,0.0,0.0,88,0.00,,,0.00,Wunderground v.1.15,2013-09-07 01:52:00,
2013-09-06 21:53:00,59.6,56.0,30.24,SSE,158,0.0,0.0,88,0.00,,,0.00,Wunderground v.1.15,2013-09-07 01:53:00,
2013-09-06 21:54:00,59.6,56.0,30.24,SSE,158,0.0,0.0,88,0.00,,,0.00,Wunderground v.1.15,2013-09-07 01:54:00,
2013-09-06 21:55:00,59.5,55.9,30.24,SSE,158,0.0,0.0,88,0.00,,,0.00,Wunderground v.1.15,2013-09-07 01:55:00,
2013-09-06 21:57:00,59.5,55.9,30.24,SSE,158,0.0,0.0,88,0.00,,,0.00,Wunderground v.1.15,2013-09-07 01:57:00,
2013-09-06 21:59:00,59.4,55.8,30.24,SSE,158,0.0,1.0,88,0.00,,,0.00,Wunderground v.1.15,2013-09-07 01:59:00,
2013-09-06 22:00:00,59.3,55.7,30.24,SSE,158,0.0,0.0,88,0.00,,,0.00,Wunderground v.1.15,2013-09-07 02:00:00,
2013-09-06 22:02:00,59.3,56.1,30.24,SSE,158,0.0,0.0,89,0.00,,,0.00,Wunderground v.1.15,2013-09-07 02:02:00,
2013-09-06 22:03:00,59.2,56.0,30.24,SSE,158,0.0,0.0,89,0.00,,,0.00,Wunderground v.1.15,2013-09-07 02:03:00,
2013-09-06 22:04:00,59.2,56.0,30.24,SSE,158,0.0,0.0,89,0.00,,,0.00,Wunderground v.1.15,2013-09-07 02:04:00,
2013-09-06 22:05:00,59.1,55.9,30.24,SSE,158,0.0,0.0,89,0.00,,,0.00,Wunderground v.1.15,2013-09-07 02:05:00,
2013-09-06 22:08:00,59.0,55.8,30.24,SSE,158,0.0,0.0,89,0.00,,,0.00,Wunderground v.1.15,2013-09-07 02:08:00,
2013-09-06 22:09:00,59.0,55.8,30.24,SSE,158,0.0,0.0,89,0.00,,,0.00,Wunderground v.1.15,2013-09-07 02:09:00,
2013-09-06 22:10:00,59.0,55.8,30.24,SSE,158,0.0,0.0,89,0.00,,,0.00,Wunderground v.1.15,2013-09-07 02:10:00,
2013-09-06 22:12:00,58.9,55.7,30.24,SSE,160,1.0,1.0,89,0.00,,,0.00,Wunderground v.1.15,2013-09-07 02:12:00,
2013-09-06 22:13:00,58.9,55.7,30.24,SSE,161,1.0,1.0,89,0.00,,,0.00,Wunderground v.1.15,2013-09-07 02:13:00,
2013-09-06 22:14:00,58.9,55.7,30.24,SSE,161,0.0,1.0,89,0.00,,,0.00,Wunderground v.1.15,2013-09-07 02:14:00,
2013-09-06 22:15:00,58.8,55.6,30.24,SSE,161,0.0,1.0,89,0.00,,,0.00,Wunderground v.1.15,2013-09-07 02:15:00,
2013-09-06 22:16:00,58.8,55.6,30.24,SSE,161,0.0,1.0,89,0.00,,,0.00,Wunderground v.1.15,2013-09-07 02:16:00,
2013-09-06 22:18:00,58.7,55.5,30.24,SSE,161,0.0,1.0,89,0.00,,,0.00,Wunderground v.1.15,2013-09-07 02:18:00,
2013-09-06 22:19:00,58.7,55.5,30.24,SSE,161,0.0,1.0,89,0.00,,,0.00,Wunderground v.1.15,2013-09-07 02:19:00,
2013-09-06 22:20:00,58.6,55.7,30.24,SSE,161,0.0,0.0,90,0.00,,,0.00,Wunderground v.1.15,2013-09-07 02:20:00,
2013-09-06 22:21:00,58.6,55.7,30.25,SSE,161,0.0,0.0,90,0.00,,,0.00,Wunderground v.1.15,2013-09-07 02:21:00,
2013-09-06 22:24:00,58.6,55.7,30.25,SSE,161,0.0,0.0,90,0.00,,,0.00,Wunderground v.1.15,2013-09-07 02:24:00,
2013-09-06 22:25:00,58.5,55.6,30.25,SSE,161,0.0,0.0,90,0.00,,,0.00,Wunderground v.1.15,2013-09-07 02:25:00,
2013-09-06 22:26:00,58.5,55.6,30.25,SSE,161,0.0,0.0,90,0.00,,,0.00,Wunderground v.1.15,2013-09-07 02:26:00,
2013-09-06 22:27:00,58.5,55.6,30.25,SSE,161,0.0,0.0,90,0.00,,,0.00,Wunderground v.1.15,2013-09-07 02:27:00,
2013-09-06 22:29:00,58.5,55.6,30.25,SSE,161,0.0,0.0,90,0.00,,,0.00,Wunderground v.1.15,2013-09-07 02:29:00,
2013-09-06 22:30:00,58.4,55.5,30.25,SSE,161,0.0,0.0,90,0.00,,,0.00,Wunderground v.1.15,2013-09-07 02:30:00,
2013-09-06 22:31:00,58.4,55.5,30.25,SSE,161,0.0,0.0,90,0.00,,,0.00,Wunderground v.1.15,2013-09-07 02:31:00,
2013-09-06 22:34:00,58.4,55.5,30.25,SSE,161,0.0,1.0,90,0.00,,,0.00,Wunderground v.1.15,2013-09-07 02:34:00,
2013-09-06 22:35:00,58.3,55.4,30.24,SSE,161,0.0,1.0,90,0.00,,,0.00,Wunderground v.1.15,2013-09-07 02:35:00,
2013-09-06 22:36:00,58.3,55.4,30.25,SSE,161,0.0,1.0,90,0.00,,,0.00,Wunderground v.1.15,2013-09-07 02:36:00,
2013-09-06 22:37:00,58.3,55.4,30.25,SSE,161,0.0,1.0,90,0.00,,,0.00,Wunderground v.1.15,2013-09-07 02:37:00,
2013-09-06 22:39:00,58.2,55.3,30.25,SSE,161,0.0,1.0,90,0.00,,,0.00,Wunderground v.1.15,2013-09-07 02:39:00,
2013-09-06 22:41:00,58.2,55.3,30.25,SSE,161,0.0,0.0,90,0.00,,,0.00,Wunderground v.1.15,2013-09-07 02:41:00,
2013-09-06 22:42:00,58.2,55.3,30.25,SSE,161,0.0,0.0,90,0.00,,,0.00,Wunderground v.1.15,2013-09-07 02:42:00,
2013-09-06 22:43:00,58.1,55.2,30.24,SSE,161,0.0,1.0,90,0.00,,,0.00,Wunderground v.1.15,2013-09-07 02:43:00,
2013-09-06 22:44:00,58.1,55.2,30.24,SSE,161,0.0,1.0,90,0.00,,,0.00,Wunderground v.1.15,2013-09-07 02:44:00,
2013-09-06 22:46:00,58.1,55.5,30.24,SSE,161,0.0,1.0,91,0.00,,,0.00,Wunderground v.1.15,2013-09-07 02:46:00,
2013-09-06 22:47:00,58.1,55.5,30.24,SSE,161,0.0,1.0,91,0.00,,,0.00,Wunderground v.1.15,2013-09-07 02:47:00,
2013-09-06 22:48:00,58.0,55.4,30.24,SSE,161,0.0,1.0,91,0.00,,,0.00,Wunderground v.1.15,2013-09-07 02:48:00,
2013-09-06 22:50:00,58.0,55.1,30.24,SSE,161,0.0,0.0,90,0.00,,,0.00,Wunderground v.1.15,2013-09-07 02:50:00,
2013-09-06 22:51:00,57.9,55.3,30.24,SSE,161,0.0,0.0,91,0.00,,,0.00,Wunderground v.1.15,2013-09-07 02:51:00,
2013-09-06 22:52:00,57.9,55.3,30.24,SSE,161,0.0,0.0,91,0.00,,,0.00,Wunderground v.1.15,2013-09-07 02:52:00,
2013-09-06 22:54:00,57.8,54.9,30.24,SSE,161,0.0,0.0,90,0.00,,,0.00,Wunderground v.1.15,2013-09-07 02:54:00,
2013-09-06 22:55:00,57.8,54.9,30.24,SSE,161,0.0,0.0,90,0.00,,,0.00,Wunderground v.1.15,2013-09-07 02:55:00,
2013-09-06 22:56:00,57.8,55.2,30.24,SSE,161,0.0,0.0,91,0.00,,,0.00,Wunderground v.1.15,2013-09-07 02:56:00,
2013-09-06 22:58:00,57.7,54.8,30.24,SSE,161,0.0,0.0,90,0.00,,,0.00,Wunderground v.1.15,2013-09-07 02:58:00,
2013-09-06 22:59:00,57.7,55.1,30.24,SSE,161,0.0,0.0,91,0.00,,,0.00,Wunderground v.1.15,2013-09-07 02:59:00,
2013-09-06 23:00:00,57.7,55.1,30.24,SSE,161,0.0,0.0,91,0.00,,,0.00,Wunderground v.1.15,2013-09-07 03:00:00,
2013-09-06 23:02:00,57.6,55.0,30.23,SSE,161,0.0,0.0,91,0.00,,,0.00,Wunderground v.1.15,2013-09-07 03:02:00,
2013-09-06 23:03:00,57.6,55.0,30.23,SSE,161,0.0,0.0,91,0.00,,,0.00,Wunderground v.1.15,2013-09-07 03:03:00,
2013-09-06 23:04:00,57.6,55.0,30.23,SSE,161,0.0,0.0,91,0.00,,,0.00,Wunderground v.1.15,2013-09-07 03:04:00,
2013-09-06 23:05:00,57.6,55.0,30.23,SSE,161,0.0,0.0,91,0.00,,,0.00,Wunderground v.1.15,2013-09-07 03:05:00,
2013-09-06 23:08:00,57.5,54.9,30.23,SSE,161,0.0,1.0,91,0.00,,,0.00,Wunderground v.1.15,2013-09-07 03:08:00,
2013-09-06 23:09:00,57.5,54.9,30.23,SSE,161,0.0,1.0,91,0.00,,,0.00,Wunderground v.1.15,2013-09-07 03:09:00,
2013-09-06 23:10:00,57.5,54.9,30.23,SSE,161,0.0,0.0,91,0.00,,,0.00,Wunderground v.1.15,2013-09-07 03:10:00,
2013-09-06 23:13:00,57.5,54.9,30.24,SSE,161,0.0,0.0,91,0.00,,,0.00,Wunderground v.1.15,2013-09-07 03:13:00,
2013-09-06 23:14:00,57.4,54.8,30.24,SSE,161,0.0,0.0,91,0.00,,,0.00,Wunderground v.1.15,2013-09-07 03:14:00,
2013-09-06 23:15:00,57.4,54.8,30.24,SSE,161,0.0,0.0,91,0.00,,,0.00,Wunderground v.1.15,2013-09-07 03:15:00,
2013-09-06 23:16:00,57.4,54.8,30.24,SSE,161,0.0,0.0,91,0.00,,,0.00,Wunderground v.1.15,2013-09-07 03:16:00,
2013-09-06 23:18:00,57.4,54.8,30.24,WSW,250,1.0,2.0,91,0.00,,,0.00,Wunderground v.1.15,2013-09-07 03:18:00,
2013-09-06 23:19:00,57.3,54.7,30.24,West,273,0.0,2.0,91,0.00,,,0.00,Wunderground v.1.15,2013-09-07 03:19:00,
2013-09-06 23:20:00,57.3,54.7,30.24,West,274,2.0,2.0,91,0.00,,,0.00,Wunderground v.1.15,2013-09-07 03:20:00,
2013-09-06 23:21:00,57.3,54.7,30.24,West,274,0.0,2.0,91,0.00,,,0.00,Wunderground v.1.15,2013-09-07 03:21:00,
2013-09-06 23:23:00,57.2,54.6,30.24,West,274,2.0,2.0,91,0.00,,,0.00,Wunderground v.1.15,2013-09-07 03:23:00,
2013-09-06 23:25:00,57.2,54.6,30.24,West,274,0.0,2.0,91,0.00,,,0.00,Wunderground v.1.15,2013-09-07 03:25:00,
2013-09-06 23:26:00,57.2,54.6,30.24,West,274,0.0,2.0,91,0.00,,,0.00,Wunderground v.1.15,2013-09-07 03:26:00,
2013-09-06 23:28:00,57.2,54.9,30.23,West,274,0.0,2.0,92,0.00,,,0.00,Wunderground v.1.15,2013-09-07 03:28:00,
2013-09-06 23:29:00,57.2,54.9,30.24,West,274,0.0,2.0,92,0.00,,,0.00,Wunderground v.1.15,2013-09-07 03:29:00,
2013-09-06 23:30:00,57.2,54.9,30.24,West,274,0.0,0.0,92,0.00,,,0.00,Wunderground v.1.15,2013-09-07 03:30:00,
2013-09-06 23:31:00,57.2,54.9,30.24,West,274,0.0,0.0,92,0.00,,,0.00,Wunderground v.1.15,2013-09-07 03:31:00,
2013-09-06 23:32:00,57.2,54.9,30.24,West,274,0.0,0.0,92,0.00,,,0.00,Wunderground v.1.15,2013-09-07 03:32:00,
2013-09-06 23:34:00,57.3,55.0,30.24,West,274,0.0,0.0,92,0.00,,,0.00,Wunderground v.1.15,2013-09-07 03:34:00,
2013-09-06 23:35:00,57.3,55.0,30.23,West,274,1.0,1.0,92,0.00,,,0.00,Wunderground v.1.15,2013-09-07 03:35:00,
2013-09-06 23:36:00,57.3,55.0,30.23,West,274,0.0,1.0,92,0.00,,,0.00,Wunderground v.1.15,2013-09-07 03:36:00,
2013-09-06 23:38:00,57.3,55.0,30.24,West,274,0.0,2.0,92,0.00,,,0.00,Wunderground v.1.15,2013-09-07 03:38:00,
2013-09-06 23:39:00,57.3,55.0,30.24,West,274,0.0,2.0,92,0.00,,,0.00,Wunderground v.1.15,2013-09-07 03:39:00,
2013-09-06 23:40:00,57.4,54.8,30.23,West,274,1.0,2.0,91,0.00,,,0.00,Wunderground v.1.15,2013-09-07 03:40:00,
2013-09-06 23:41:00,57.4,54.8,30.23,West,273,1.0,2.0,91,0.00,,,0.00,Wunderground v.1.15,2013-09-07 03:41:00,
2013-09-06 23:44:00,57.4,54.8,30.23,West,273,0.0,2.0,91,0.00,,,0.00,Wunderground v.1.15,2013-09-07 03:44:00,
2013-09-06 23:46:00,57.4,54.8,30.23,West,273,1.0,2.0,91,0.00,,,0.00,Wunderground v.1.15,2013-09-07 03:46:00,
2013-09-06 23:47:00,57.4,54.8,30.23,West,273,0.0,2.0,91,0.00,,,0.00,Wunderground v.1.15,2013-09-07 03:47:00,
2013-09-06 23:48:00,57.3,54.7,30.23,West,273,0.0,2.0,91,0.00,,,0.00,Wunderground v.1.15,2013-09-07 03:48:00,
2013-09-06 23:49:00,57.3,54.7,30.23,West,273,0.0,2.0,91,0.00,,,0.00,Wunderground v.1.15,2013-09-07 03:49:00,
2013-09-06 23:51:00,57.3,54.7,30.23,West,273,0.0,1.0,91,0.00,,,0.00,Wunderground v.1.15,2013-09-07 03:51:00,
2013-09-06 23:52:00,57.3,54.7,30.23,West,273,0.0,1.0,91,0.00,,,0.00,Wunderground v.1.15,2013-09-07 03:52:00,
2013-09-06 23:54:00,57.3,54.7,30.23,West,273,0.0,1.0,91,0.00,,,0.00,Wunderground v.1.15,2013-09-07 03:54:00,
2013-09-06 23:55:00,57.3,54.7,30.23,West,273,0.0,1.0,91,0.00,,,0.00,Wunderground v.1.15,2013-09-07 03:55:00,
2013-09-06 23:56:00,57.3,54.7,30.23,West,273,0.0,1.0,91,0.00,,,0.00,Wunderground v.1.15,2013-09-07 03:56:00,
2013-09-06 23:57:00,57.3,54.7,30.23,West,273,0.0,1.0,91,0.00,,,0.00,Wunderground v.1.15,2013-09-07 03:57:00,
2013-09-06 23:58:00,57.3,54.7,30.23,West,273,0.0,1.0,91,0.00,,,0.00,Wunderground v.1.15,2013-09-07 03:58:00,
2013-09-06 23:59:00,57.3,54.7,30.23,West,273,0.0,1.0,91,0.00,,,0.00,Wunderground v.1.15,2013-09-07 03:59:00,